<?xml version="1.0" encoding="UTF-8"?>
<gpx version="1.1" creator="2bulu-scraper" xmlns="http://www.topografix.com/GPX/1/1">
  <metadata><name>纳溪鼓楼山中环线</name><desc>source: 2bulu.com trackId=84987998; exported 2026-09-01T14:50:54.437Z</desc>
    <bounds minlat="28.7301212" minlon="105.5651222" maxlat="28.7470717" maxlon="105.5905451"/>
    <link href="https://www.2bulu.com/track/t-ONe5Qjbanknp%252FR2KBg5Tzw%253D%253D.htm"><text>2bulu 源页面</text></link>
  </metadata>
  <wpt lat="28.7441776" lon="105.5694468"><ele>629</ele><name>石笋
        </name></wpt>
  <wpt lat="28.74419" lon="105.5698977"><ele>627</ele><name>另一角度看石笋
        </name></wpt>
  <wpt lat="28.742727" lon="105.5733091"><ele>697</ele><name>废亭子
        </name></wpt>
  <wpt lat="28.7414638" lon="105.5739612"><ele>665</ele><name>临崖路起点
        </name></wpt>
  <wpt lat="28.7400208" lon="105.5736814"><ele>643</ele><name>水潭
        </name></wpt>
  <wpt lat="28.7393149" lon="105.5759387"><ele>642</ele><name>蕨菜之壁
        </name></wpt>
  <wpt lat="28.7411294" lon="105.5808127"><ele>658</ele><name>俯瞰高峰寺
        </name></wpt>
  <wpt lat="28.7391338" lon="105.5887538"><ele>647</ele><name>竹林小屋
        </name></wpt>
  <wpt lat="28.7379926" lon="105.5902732"><ele>646</ele><name>瀑布之上
        </name></wpt>
  <wpt lat="28.736722" lon="105.5894237"><ele>648</ele><name>李子林
        </name></wpt>
  <wpt lat="28.7355939" lon="105.5884939"><ele>647</ele><name>桂花林
        </name></wpt>
  <wpt lat="28.7338285" lon="105.5874332"><ele>652</ele><name>千村示范工程点
        </name></wpt>
  <wpt lat="28.732601" lon="105.5840875"><ele>574</ele><name>崖居遗址
        </name></wpt>
  <wpt lat="28.7350795" lon="105.5834034"><ele>596</ele><name>二层岩
        </name></wpt>
  <wpt lat="28.7339815" lon="105.5816867"><ele>591</ele><name>木姜子基地
        </name></wpt>
  <wpt lat="28.7320799" lon="105.5796026"><ele>587</ele><name>岩腔菩萨
        </name></wpt>
  <wpt lat="28.734727" lon="105.5721233"><ele>563</ele><name>小瀑布
        </name></wpt>
  <trk><name>纳溪鼓楼山中环线</name>
      <trkseg>
        <trkpt lat="28.7317817" lon="105.5852464"><ele>621.99</ele><time></time></trkpt>
        <trkpt lat="28.7317813" lon="105.5852432"><ele>620.24</ele><time></time></trkpt>
        <trkpt lat="28.73171" lon="105.5851689"><ele>619.21</ele><time></time></trkpt>
        <trkpt lat="28.7316856" lon="105.585065"><ele>618.67</ele><time></time></trkpt>
        <trkpt lat="28.7316812" lon="105.5849595"><ele>617.18</ele><time></time></trkpt>
        <trkpt lat="28.7316974" lon="105.5848527"><ele>615.86</ele><time></time></trkpt>
        <trkpt lat="28.7316575" lon="105.5847654"><ele>615.32</ele><time></time></trkpt>
        <trkpt lat="28.7315662" lon="105.5847473"><ele>614.8</ele><time></time></trkpt>
        <trkpt lat="28.7314676" lon="105.5847423"><ele>615.66</ele><time></time></trkpt>
        <trkpt lat="28.73137" lon="105.5847697"><ele>616.41</ele><time></time></trkpt>
        <trkpt lat="28.7312751" lon="105.5847682"><ele>615.8</ele><time></time></trkpt>
        <trkpt lat="28.7312461" lon="105.5846904"><ele>613.27</ele><time></time></trkpt>
        <trkpt lat="28.7312523" lon="105.584584"><ele>606.38</ele><time></time></trkpt>
        <trkpt lat="28.7312635" lon="105.5844681"><ele>602.77</ele><time></time></trkpt>
        <trkpt lat="28.7312786" lon="105.5843427"><ele>601.26</ele><time></time></trkpt>
        <trkpt lat="28.7313097" lon="105.5842305"><ele>599.11</ele><time></time></trkpt>
        <trkpt lat="28.7313746" lon="105.5841475"><ele>596.49</ele><time></time></trkpt>
        <trkpt lat="28.7314318" lon="105.5841439"><ele>593.92</ele><time></time></trkpt>
        <trkpt lat="28.7315163" lon="105.5841788"><ele>593.11</ele><time></time></trkpt>
        <trkpt lat="28.7316033" lon="105.5842325"><ele>593.19</ele><time></time></trkpt>
        <trkpt lat="28.731703" lon="105.5842865"><ele>592.94</ele><time></time></trkpt>
        <trkpt lat="28.7318142" lon="105.5843083"><ele>590.99</ele><time></time></trkpt>
        <trkpt lat="28.7319167" lon="105.5842651"><ele>587.23</ele><time></time></trkpt>
        <trkpt lat="28.7320016" lon="105.5841743"><ele>583.17</ele><time></time></trkpt>
        <trkpt lat="28.7320797" lon="105.5840959"><ele>580.92</ele><time></time></trkpt>
        <trkpt lat="28.7320945" lon="105.584084"><ele>580.15</ele><time></time></trkpt>
        <trkpt lat="28.7321743" lon="105.5840646"><ele>579.76</ele><time></time></trkpt>
        <trkpt lat="28.7322742" lon="105.5840951"><ele>584.19</ele><time></time></trkpt>
        <trkpt lat="28.7323683" lon="105.5841182"><ele>586.01</ele><time></time></trkpt>
        <trkpt lat="28.7324628" lon="105.5841345"><ele>586.2</ele><time></time></trkpt>
        <trkpt lat="28.7325492" lon="105.5841064"><ele>585.25</ele><time></time></trkpt>
        <trkpt lat="28.732601" lon="105.5840875"><ele>583.41</ele><time></time></trkpt>
        <trkpt lat="28.7326397" lon="105.5840005"><ele>579.44</ele><time></time></trkpt>
        <trkpt lat="28.7326567" lon="105.5838931"><ele>581.95</ele><time></time></trkpt>
        <trkpt lat="28.7326567" lon="105.5838931"><ele>581.95</ele><time></time></trkpt>
        <trkpt lat="28.7327046" lon="105.5836512"><ele>584.57</ele><time></time></trkpt>
        <trkpt lat="28.7327046" lon="105.5836512"><ele>584.57</ele><time></time></trkpt>
        <trkpt lat="28.732756" lon="105.5835396"><ele>588.24</ele><time></time></trkpt>
        <trkpt lat="28.7328079" lon="105.583444"><ele>589.6</ele><time></time></trkpt>
        <trkpt lat="28.7328632" lon="105.5833474"><ele>589.59</ele><time></time></trkpt>
        <trkpt lat="28.7329509" lon="105.5832783"><ele>587.63</ele><time></time></trkpt>
        <trkpt lat="28.7330498" lon="105.5832544"><ele>586.84</ele><time></time></trkpt>
        <trkpt lat="28.7331513" lon="105.5832687"><ele>586.99</ele><time></time></trkpt>
        <trkpt lat="28.7332484" lon="105.5833048"><ele>587.62</ele><time></time></trkpt>
        <trkpt lat="28.7333392" lon="105.5833549"><ele>587.94</ele><time></time></trkpt>
        <trkpt lat="28.73342" lon="105.5834159"><ele>588.13</ele><time></time></trkpt>
        <trkpt lat="28.7334796" lon="105.5835027"><ele>588.28</ele><time></time></trkpt>
        <trkpt lat="28.7335258" lon="105.5836026"><ele>588.79</ele><time></time></trkpt>
        <trkpt lat="28.7335593" lon="105.5837205"><ele>589.35</ele><time></time></trkpt>
        <trkpt lat="28.7336393" lon="105.5837928"><ele>590.2</ele><time></time></trkpt>
        <trkpt lat="28.7336904" lon="105.58379"><ele>591.01</ele><time></time></trkpt>
        <trkpt lat="28.7337682" lon="105.5837278"><ele>590.56</ele><time></time></trkpt>
        <trkpt lat="28.7338352" lon="105.5836212"><ele>589.89</ele><time></time></trkpt>
        <trkpt lat="28.7338234" lon="105.5835461"><ele>589.16</ele><time></time></trkpt>
        <trkpt lat="28.7338685" lon="105.5834698"><ele>589.99</ele><time></time></trkpt>
        <trkpt lat="28.7339476" lon="105.5834025"><ele>592.4</ele><time></time></trkpt>
        <trkpt lat="28.7340475" lon="105.5833819"><ele>594.02</ele><time></time></trkpt>
        <trkpt lat="28.7341451" lon="105.5833999"><ele>595.53</ele><time></time></trkpt>
        <trkpt lat="28.7342361" lon="105.5834364"><ele>596.75</ele><time></time></trkpt>
        <trkpt lat="28.734331" lon="105.5834712"><ele>597.66</ele><time></time></trkpt>
        <trkpt lat="28.7344316" lon="105.5835026"><ele>598.55</ele><time></time></trkpt>
        <trkpt lat="28.7345166" lon="105.5835701"><ele>597.49</ele><time></time></trkpt>
        <trkpt lat="28.7346142" lon="105.5836086"><ele>596.91</ele><time></time></trkpt>
        <trkpt lat="28.7347211" lon="105.5836023"><ele>596.23</ele><time></time></trkpt>
        <trkpt lat="28.7348269" lon="105.5835928"><ele>595.55</ele><time></time></trkpt>
        <trkpt lat="28.7349275" lon="105.5835871"><ele>595.81</ele><time></time></trkpt>
        <trkpt lat="28.7350121" lon="105.5835456"><ele>596.24</ele><time></time></trkpt>
        <trkpt lat="28.7350592" lon="105.5834576"><ele>596.5</ele><time></time></trkpt>
        <trkpt lat="28.7350795" lon="105.5834034"><ele>596.66</ele><time></time></trkpt>
        <trkpt lat="28.7350375" lon="105.5833243"><ele>596.51</ele><time></time></trkpt>
        <trkpt lat="28.7349658" lon="105.5832352"><ele>600.81</ele><time></time></trkpt>
        <trkpt lat="28.7348872" lon="105.5831451"><ele>605.05</ele><time></time></trkpt>
        <trkpt lat="28.7348136" lon="105.5830634"><ele>605.41</ele><time></time></trkpt>
        <trkpt lat="28.7347207" lon="105.5830072"><ele>605.6</ele><time></time></trkpt>
        <trkpt lat="28.7346264" lon="105.5829382"><ele>605.2</ele><time></time></trkpt>
        <trkpt lat="28.7345397" lon="105.5828743"><ele>606.07</ele><time></time></trkpt>
        <trkpt lat="28.7344528" lon="105.5828125"><ele>606.07</ele><time></time></trkpt>
        <trkpt lat="28.7343757" lon="105.5827525"><ele>605.8</ele><time></time></trkpt>
        <trkpt lat="28.7342937" lon="105.5827117"><ele>605.29</ele><time></time></trkpt>
        <trkpt lat="28.7342368" lon="105.5827704"><ele>605.68</ele><time></time></trkpt>
        <trkpt lat="28.7342301" lon="105.5827923"><ele>607.87</ele><time></time></trkpt>
        <trkpt lat="28.7342806" lon="105.5827389"><ele>609.36</ele><time></time></trkpt>
        <trkpt lat="28.7342437" lon="105.5826654"><ele>610.38</ele><time></time></trkpt>
        <trkpt lat="28.7341646" lon="105.5825871"><ele>609.92</ele><time></time></trkpt>
        <trkpt lat="28.7340785" lon="105.5825051"><ele>608.09</ele><time></time></trkpt>
        <trkpt lat="28.7340162" lon="105.5824127"><ele>605.6</ele><time></time></trkpt>
        <trkpt lat="28.7339727" lon="105.5823727"><ele>602.62</ele><time></time></trkpt>
        <trkpt lat="28.7340351" lon="105.5822957"><ele>601.04</ele><time></time></trkpt>
        <trkpt lat="28.7341058" lon="105.5822123"><ele>598.65</ele><time></time></trkpt>
        <trkpt lat="28.7341803" lon="105.582145"><ele>596.61</ele><time></time></trkpt>
        <trkpt lat="28.7342088" lon="105.5820413"><ele>592.64</ele><time></time></trkpt>
        <trkpt lat="28.7342335" lon="105.5819304"><ele>591.08</ele><time></time></trkpt>
        <trkpt lat="28.7341952" lon="105.5818354"><ele>590.11</ele><time></time></trkpt>
        <trkpt lat="28.7341148" lon="105.5817769"><ele>590.1</ele><time></time></trkpt>
        <trkpt lat="28.734051" lon="105.5817707"><ele>589.7</ele><time></time></trkpt>
        <trkpt lat="28.7339977" lon="105.5817097"><ele>590.31</ele><time></time></trkpt>
        <trkpt lat="28.7339815" lon="105.5816867"><ele>590.54</ele><time></time></trkpt>
        <trkpt lat="28.7339346" lon="105.5816096"><ele>590.69</ele><time></time></trkpt>
        <trkpt lat="28.7338786" lon="105.5815034"><ele>589.88</ele><time></time></trkpt>
        <trkpt lat="28.733831" lon="105.5813831"><ele>589.3</ele><time></time></trkpt>
        <trkpt lat="28.7337829" lon="105.5812705"><ele>588.6</ele><time></time></trkpt>
        <trkpt lat="28.7337016" lon="105.581208"><ele>588.37</ele><time></time></trkpt>
        <trkpt lat="28.7335999" lon="105.5811793"><ele>588.64</ele><time></time></trkpt>
        <trkpt lat="28.7334967" lon="105.5811894"><ele>589.23</ele><time></time></trkpt>
        <trkpt lat="28.7333917" lon="105.581218"><ele>590.01</ele><time></time></trkpt>
        <trkpt lat="28.7332935" lon="105.5812314"><ele>590.32</ele><time></time></trkpt>
        <trkpt lat="28.7331978" lon="105.5812769"><ele>591.2</ele><time></time></trkpt>
        <trkpt lat="28.7331021" lon="105.5812971"><ele>593.06</ele><time></time></trkpt>
        <trkpt lat="28.733014" lon="105.5813412"><ele>595.15</ele><time></time></trkpt>
        <trkpt lat="28.7329124" lon="105.5813673"><ele>596.87</ele><time></time></trkpt>
        <trkpt lat="28.7328165" lon="105.5813586"><ele>598.3</ele><time></time></trkpt>
        <trkpt lat="28.7327209" lon="105.5813425"><ele>599.36</ele><time></time></trkpt>
        <trkpt lat="28.7326329" lon="105.5813088"><ele>599.5</ele><time></time></trkpt>
        <trkpt lat="28.7325558" lon="105.5812327"><ele>598.36</ele><time></time></trkpt>
        <trkpt lat="28.7324814" lon="105.581152"><ele>596.49</ele><time></time></trkpt>
        <trkpt lat="28.7324114" lon="105.5810751"><ele>593.61</ele><time></time></trkpt>
        <trkpt lat="28.7323332" lon="105.58101"><ele>591.88</ele><time></time></trkpt>
        <trkpt lat="28.732275" lon="105.580925"><ele>590.78</ele><time></time></trkpt>
        <trkpt lat="28.7322917" lon="105.5808133"><ele>589.19</ele><time></time></trkpt>
        <trkpt lat="28.7323652" lon="105.5807151"><ele>587.31</ele><time></time></trkpt>
        <trkpt lat="28.7324234" lon="105.580605"><ele>585.49</ele><time></time></trkpt>
        <trkpt lat="28.7324202" lon="105.5804838"><ele>583.47</ele><time></time></trkpt>
        <trkpt lat="28.7323568" lon="105.5803776"><ele>582.45</ele><time></time></trkpt>
        <trkpt lat="28.732286" lon="105.5802852"><ele>583.54</ele><time></time></trkpt>
        <trkpt lat="28.7322405" lon="105.5801718"><ele>585.33</ele><time></time></trkpt>
        <trkpt lat="28.7322377" lon="105.5800592"><ele>585.37</ele><time></time></trkpt>
        <trkpt lat="28.7322506" lon="105.5799533"><ele>585.72</ele><time></time></trkpt>
        <trkpt lat="28.732255" lon="105.579838"><ele>585.66</ele><time></time></trkpt>
        <trkpt lat="28.732236" lon="105.5797329"><ele>585.51</ele><time></time></trkpt>
        <trkpt lat="28.7321736" lon="105.5796439"><ele>586.21</ele><time></time></trkpt>
        <trkpt lat="28.7320799" lon="105.5796026"><ele>587.64</ele><time></time></trkpt>
        <trkpt lat="28.7319794" lon="105.5796204"><ele>587.39</ele><time></time></trkpt>
        <trkpt lat="28.731879" lon="105.5796621"><ele>587.52</ele><time></time></trkpt>
        <trkpt lat="28.7317783" lon="105.5796987"><ele>587.14</ele><time></time></trkpt>
        <trkpt lat="28.7316819" lon="105.579728"><ele>587.84</ele><time></time></trkpt>
        <trkpt lat="28.7315852" lon="105.5797558"><ele>588.64</ele><time></time></trkpt>
        <trkpt lat="28.7314923" lon="105.5797467"><ele>589.88</ele><time></time></trkpt>
        <trkpt lat="28.7314307" lon="105.5797154"><ele>592.04</ele><time></time></trkpt>
        <trkpt lat="28.7313706" lon="105.5796338"><ele>593.84</ele><time></time></trkpt>
        <trkpt lat="28.7313265" lon="105.5795248"><ele>596.45</ele><time></time></trkpt>
        <trkpt lat="28.7313014" lon="105.5793896"><ele>596.36</ele><time></time></trkpt>
        <trkpt lat="28.7313035" lon="105.579256"><ele>595.08</ele><time></time></trkpt>
        <trkpt lat="28.7313307" lon="105.5791306"><ele>593.54</ele><time></time></trkpt>
        <trkpt lat="28.7313665" lon="105.5790096"><ele>591.53</ele><time></time></trkpt>
        <trkpt lat="28.7313696" lon="105.5788861"><ele>590.87</ele><time></time></trkpt>
        <trkpt lat="28.731346" lon="105.5787663"><ele>592.16</ele><time></time></trkpt>
        <trkpt lat="28.7312917" lon="105.5786745"><ele>594.5</ele><time></time></trkpt>
        <trkpt lat="28.7312234" lon="105.578596"><ele>596.72</ele><time></time></trkpt>
        <trkpt lat="28.7311384" lon="105.5785394"><ele>599</ele><time></time></trkpt>
        <trkpt lat="28.7310361" lon="105.5785018"><ele>600.3</ele><time></time></trkpt>
        <trkpt lat="28.7309364" lon="105.5784861"><ele>601.31</ele><time></time></trkpt>
        <trkpt lat="28.7308431" lon="105.5785007"><ele>601.95</ele><time></time></trkpt>
        <trkpt lat="28.7307528" lon="105.5785379"><ele>601.65</ele><time></time></trkpt>
        <trkpt lat="28.7306593" lon="105.5785879"><ele>600.14</ele><time></time></trkpt>
        <trkpt lat="28.7305694" lon="105.5786194"><ele>599.34</ele><time></time></trkpt>
        <trkpt lat="28.7304656" lon="105.5786283"><ele>599.36</ele><time></time></trkpt>
        <trkpt lat="28.7303644" lon="105.5785985"><ele>598.78</ele><time></time></trkpt>
        <trkpt lat="28.7302626" lon="105.5785587"><ele>598.91</ele><time></time></trkpt>
        <trkpt lat="28.730172" lon="105.5784958"><ele>599.06</ele><time></time></trkpt>
        <trkpt lat="28.7301276" lon="105.57839"><ele>599.43</ele><time></time></trkpt>
        <trkpt lat="28.7301212" lon="105.5782671"><ele>597.71</ele><time></time></trkpt>
        <trkpt lat="28.7301601" lon="105.5781563"><ele>596.67</ele><time></time></trkpt>
        <trkpt lat="28.7302328" lon="105.5780539"><ele>595.63</ele><time></time></trkpt>
        <trkpt lat="28.7303001" lon="105.577959"><ele>594.49</ele><time></time></trkpt>
        <trkpt lat="28.7303791" lon="105.5778713"><ele>593.71</ele><time></time></trkpt>
        <trkpt lat="28.7304561" lon="105.5777862"><ele>592.79</ele><time></time></trkpt>
        <trkpt lat="28.730479" lon="105.5776871"><ele>591.86</ele><time></time></trkpt>
        <trkpt lat="28.7304915" lon="105.5775807"><ele>591.2</ele><time></time></trkpt>
        <trkpt lat="28.7305053" lon="105.5774769"><ele>591</ele><time></time></trkpt>
        <trkpt lat="28.7305342" lon="105.5773639"><ele>591.12</ele><time></time></trkpt>
        <trkpt lat="28.7305657" lon="105.5772519"><ele>591.96</ele><time></time></trkpt>
        <trkpt lat="28.7305792" lon="105.577161"><ele>592.97</ele><time></time></trkpt>
        <trkpt lat="28.7306151" lon="105.5770648"><ele>593.74</ele><time></time></trkpt>
        <trkpt lat="28.7306834" lon="105.5769781"><ele>594.97</ele><time></time></trkpt>
        <trkpt lat="28.730775" lon="105.5769097"><ele>595.59</ele><time></time></trkpt>
        <trkpt lat="28.7308568" lon="105.5768414"><ele>595.29</ele><time></time></trkpt>
        <trkpt lat="28.7309445" lon="105.5767679"><ele>594.57</ele><time></time></trkpt>
        <trkpt lat="28.7310272" lon="105.5767014"><ele>594.08</ele><time></time></trkpt>
        <trkpt lat="28.731114" lon="105.5766687"><ele>593.61</ele><time></time></trkpt>
        <trkpt lat="28.7312024" lon="105.5767198"><ele>593.22</ele><time></time></trkpt>
        <trkpt lat="28.7312683" lon="105.5768038"><ele>593.34</ele><time></time></trkpt>
        <trkpt lat="28.7313126" lon="105.5769059"><ele>593.57</ele><time></time></trkpt>
        <trkpt lat="28.731363" lon="105.5770133"><ele>594.54</ele><time></time></trkpt>
        <trkpt lat="28.7314503" lon="105.5770814"><ele>595.83</ele><time></time></trkpt>
        <trkpt lat="28.731549" lon="105.5771403"><ele>597.03</ele><time></time></trkpt>
        <trkpt lat="28.7316464" lon="105.5771562"><ele>598.16</ele><time></time></trkpt>
        <trkpt lat="28.7317357" lon="105.5771144"><ele>599.23</ele><time></time></trkpt>
        <trkpt lat="28.7317885" lon="105.5770182"><ele>600.36</ele><time></time></trkpt>
        <trkpt lat="28.7318176" lon="105.5768897"><ele>601.67</ele><time></time></trkpt>
        <trkpt lat="28.7318454" lon="105.5767762"><ele>603.92</ele><time></time></trkpt>
        <trkpt lat="28.7319025" lon="105.5766895"><ele>605.86</ele><time></time></trkpt>
        <trkpt lat="28.7319702" lon="105.576616"><ele>607.57</ele><time></time></trkpt>
        <trkpt lat="28.7320646" lon="105.5765934"><ele>608.81</ele><time></time></trkpt>
        <trkpt lat="28.7321598" lon="105.5765958"><ele>609.5</ele><time></time></trkpt>
        <trkpt lat="28.7322696" lon="105.5766139"><ele>610.29</ele><time></time></trkpt>
        <trkpt lat="28.7323707" lon="105.5766237"><ele>611.35</ele><time></time></trkpt>
        <trkpt lat="28.7324657" lon="105.5766419"><ele>612.55</ele><time></time></trkpt>
        <trkpt lat="28.7325569" lon="105.5766479"><ele>613.65</ele><time></time></trkpt>
        <trkpt lat="28.7326545" lon="105.5766585"><ele>614.38</ele><time></time></trkpt>
        <trkpt lat="28.7327498" lon="105.5766803"><ele>614.75</ele><time></time></trkpt>
        <trkpt lat="28.7328336" lon="105.5766611"><ele>614.89</ele><time></time></trkpt>
        <trkpt lat="28.7329113" lon="105.5765945"><ele>615.41</ele><time></time></trkpt>
        <trkpt lat="28.7329327" lon="105.5764853"><ele>615.88</ele><time></time></trkpt>
        <trkpt lat="28.7329194" lon="105.576373"><ele>616.08</ele><time></time></trkpt>
        <trkpt lat="28.7329017" lon="105.5763143"><ele>615.97</ele><time></time></trkpt>
        <trkpt lat="28.7328553" lon="105.5762221"><ele>615.92</ele><time></time></trkpt>
        <trkpt lat="28.7328217" lon="105.5761173"><ele>616.23</ele><time></time></trkpt>
        <trkpt lat="28.7327827" lon="105.5760067"><ele>615.53</ele><time></time></trkpt>
        <trkpt lat="28.7327259" lon="105.5759082"><ele>615.26</ele><time></time></trkpt>
        <trkpt lat="28.7326609" lon="105.5758265"><ele>615.1</ele><time></time></trkpt>
        <trkpt lat="28.7325929" lon="105.5757469"><ele>614.96</ele><time></time></trkpt>
        <trkpt lat="28.7325192" lon="105.5756655"><ele>613.9</ele><time></time></trkpt>
        <trkpt lat="28.7324944" lon="105.5755704"><ele>611.41</ele><time></time></trkpt>
        <trkpt lat="28.7325368" lon="105.5754828"><ele>608.58</ele><time></time></trkpt>
        <trkpt lat="28.7326014" lon="105.5753872"><ele>607.3</ele><time></time></trkpt>
        <trkpt lat="28.7326437" lon="105.5752769"><ele>605.28</ele><time></time></trkpt>
        <trkpt lat="28.7326674" lon="105.5751671"><ele>603.88</ele><time></time></trkpt>
        <trkpt lat="28.7327164" lon="105.5750559"><ele>603.21</ele><time></time></trkpt>
        <trkpt lat="28.7327661" lon="105.5749531"><ele>603.15</ele><time></time></trkpt>
        <trkpt lat="28.7327905" lon="105.5748517"><ele>601.55</ele><time></time></trkpt>
        <trkpt lat="28.7327879" lon="105.5748308"><ele>599.12</ele><time></time></trkpt>
        <trkpt lat="28.7327414" lon="105.5747555"><ele>597.45</ele><time></time></trkpt>
        <trkpt lat="28.7326445" lon="105.5747128"><ele>597.12</ele><time></time></trkpt>
        <trkpt lat="28.7325919" lon="105.5747189"><ele>598.26</ele><time></time></trkpt>
        <trkpt lat="28.7325011" lon="105.5747295"><ele>599.17</ele><time></time></trkpt>
        <trkpt lat="28.7324051" lon="105.574721"><ele>600.56</ele><time></time></trkpt>
        <trkpt lat="28.7322925" lon="105.5747009"><ele>600.98</ele><time></time></trkpt>
        <trkpt lat="28.7321834" lon="105.5746728"><ele>600.52</ele><time></time></trkpt>
        <trkpt lat="28.7321696" lon="105.5746791"><ele>599.61</ele><time></time></trkpt>
        <trkpt lat="28.7321156" lon="105.5746419"><ele>599.47</ele><time></time></trkpt>
        <trkpt lat="28.7320308" lon="105.5745924"><ele>598.06</ele><time></time></trkpt>
        <trkpt lat="28.7319291" lon="105.5745438"><ele>596.96</ele><time></time></trkpt>
        <trkpt lat="28.7318256" lon="105.5744938"><ele>596.3</ele><time></time></trkpt>
        <trkpt lat="28.7317373" lon="105.5744264"><ele>595.68</ele><time></time></trkpt>
        <trkpt lat="28.7316708" lon="105.5743318"><ele>595.39</ele><time></time></trkpt>
        <trkpt lat="28.7316254" lon="105.5742199"><ele>595.04</ele><time></time></trkpt>
        <trkpt lat="28.7316102" lon="105.5741045"><ele>594.38</ele><time></time></trkpt>
        <trkpt lat="28.7316131" lon="105.5739797"><ele>593.29</ele><time></time></trkpt>
        <trkpt lat="28.7316102" lon="105.5738626"><ele>592.16</ele><time></time></trkpt>
        <trkpt lat="28.7315403" lon="105.5737906"><ele>590.51</ele><time></time></trkpt>
        <trkpt lat="28.7314627" lon="105.5737865"><ele>588.97</ele><time></time></trkpt>
        <trkpt lat="28.7313797" lon="105.5737576"><ele>588.02</ele><time></time></trkpt>
        <trkpt lat="28.7312814" lon="105.5737087"><ele>587.61</ele><time></time></trkpt>
        <trkpt lat="28.7311941" lon="105.5736466"><ele>586.83</ele><time></time></trkpt>
        <trkpt lat="28.7311236" lon="105.5735621"><ele>586.12</ele><time></time></trkpt>
        <trkpt lat="28.7310304" lon="105.5735153"><ele>585.62</ele><time></time></trkpt>
        <trkpt lat="28.7309258" lon="105.573513"><ele>584.59</ele><time></time></trkpt>
        <trkpt lat="28.7308261" lon="105.5734783"><ele>583.21</ele><time></time></trkpt>
        <trkpt lat="28.7307276" lon="105.5734293"><ele>581.37</ele><time></time></trkpt>
        <trkpt lat="28.7306493" lon="105.573364"><ele>579.63</ele><time></time></trkpt>
        <trkpt lat="28.7305739" lon="105.5732905"><ele>578.06</ele><time></time></trkpt>
        <trkpt lat="28.7305436" lon="105.5731876"><ele>577.17</ele><time></time></trkpt>
        <trkpt lat="28.730596" lon="105.5730991"><ele>576.1</ele><time></time></trkpt>
        <trkpt lat="28.7306734" lon="105.5730019"><ele>572.32</ele><time></time></trkpt>
        <trkpt lat="28.730685" lon="105.5728926"><ele>570.64</ele><time></time></trkpt>
        <trkpt lat="28.7306462" lon="105.5727986"><ele>571.64</ele><time></time></trkpt>
        <trkpt lat="28.7305886" lon="105.5727124"><ele>573.43</ele><time></time></trkpt>
        <trkpt lat="28.7305353" lon="105.5726128"><ele>575.67</ele><time></time></trkpt>
        <trkpt lat="28.7305036" lon="105.5725001"><ele>576.06</ele><time></time></trkpt>
        <trkpt lat="28.7305562" lon="105.5724657"><ele>573.23</ele><time></time></trkpt>
        <trkpt lat="28.7306529" lon="105.5724532"><ele>569.65</ele><time></time></trkpt>
        <trkpt lat="28.7307612" lon="105.5724606"><ele>566.68</ele><time></time></trkpt>
        <trkpt lat="28.7308669" lon="105.5724451"><ele>565.03</ele><time></time></trkpt>
        <trkpt lat="28.7309555" lon="105.5723886"><ele>563.62</ele><time></time></trkpt>
        <trkpt lat="28.731044" lon="105.5723301"><ele>561.48</ele><time></time></trkpt>
        <trkpt lat="28.7311325" lon="105.5722839"><ele>560.71</ele><time></time></trkpt>
        <trkpt lat="28.7312274" lon="105.5722868"><ele>562.33</ele><time></time></trkpt>
        <trkpt lat="28.7313115" lon="105.5723488"><ele>562.08</ele><time></time></trkpt>
        <trkpt lat="28.7313838" lon="105.5724248"><ele>559.44</ele><time></time></trkpt>
        <trkpt lat="28.7314604" lon="105.5724934"><ele>558.24</ele><time></time></trkpt>
        <trkpt lat="28.7315222" lon="105.5725764"><ele>556.31</ele><time></time></trkpt>
        <trkpt lat="28.7315885" lon="105.5726647"><ele>553.14</ele><time></time></trkpt>
        <trkpt lat="28.7316615" lon="105.57274"><ele>549.5</ele><time></time></trkpt>
        <trkpt lat="28.7317481" lon="105.5727376"><ele>548.76</ele><time></time></trkpt>
        <trkpt lat="28.7317748" lon="105.5726494"><ele>549.81</ele><time></time></trkpt>
        <trkpt lat="28.7317719" lon="105.5725291"><ele>550.11</ele><time></time></trkpt>
        <trkpt lat="28.7317702" lon="105.572405"><ele>552.25</ele><time></time></trkpt>
        <trkpt lat="28.7317862" lon="105.5722887"><ele>552.71</ele><time></time></trkpt>
        <trkpt lat="28.7318601" lon="105.5722665"><ele>552.01</ele><time></time></trkpt>
        <trkpt lat="28.7319533" lon="105.5722888"><ele>553.2</ele><time></time></trkpt>
        <trkpt lat="28.7320484" lon="105.5723208"><ele>555.09</ele><time></time></trkpt>
        <trkpt lat="28.7321501" lon="105.5723353"><ele>556.11</ele><time></time></trkpt>
        <trkpt lat="28.7322031" lon="105.5723553"><ele>555.92</ele><time></time></trkpt>
        <trkpt lat="28.7322816" lon="105.5723858"><ele>555.79</ele><time></time></trkpt>
        <trkpt lat="28.7323722" lon="105.572421"><ele>554.39</ele><time></time></trkpt>
        <trkpt lat="28.7324514" lon="105.5724776"><ele>552.34</ele><time></time></trkpt>
        <trkpt lat="28.7325436" lon="105.5725051"><ele>551.43</ele><time></time></trkpt>
        <trkpt lat="28.7326416" lon="105.5725021"><ele>550.93</ele><time></time></trkpt>
        <trkpt lat="28.7327131" lon="105.5724391"><ele>552.23</ele><time></time></trkpt>
        <trkpt lat="28.7327128" lon="105.5723248"><ele>553.14</ele><time></time></trkpt>
        <trkpt lat="28.7326793" lon="105.5722074"><ele>559.36</ele><time></time></trkpt>
        <trkpt lat="28.7326549" lon="105.5720937"><ele>562</ele><time></time></trkpt>
        <trkpt lat="28.7327011" lon="105.5720061"><ele>561.98</ele><time></time></trkpt>
        <trkpt lat="28.7327914" lon="105.5719368"><ele>559.85</ele><time></time></trkpt>
        <trkpt lat="28.7328878" lon="105.5718593"><ele>559.85</ele><time></time></trkpt>
        <trkpt lat="28.7329928" lon="105.5718005"><ele>560.72</ele><time></time></trkpt>
        <trkpt lat="28.7330836" lon="105.5717281"><ele>561.93</ele><time></time></trkpt>
        <trkpt lat="28.7331367" lon="105.5716286"><ele>562.77</ele><time></time></trkpt>
        <trkpt lat="28.7331688" lon="105.571507"><ele>565.47</ele><time></time></trkpt>
        <trkpt lat="28.7332279" lon="105.5714025"><ele>566.7</ele><time></time></trkpt>
        <trkpt lat="28.7332873" lon="105.5713085"><ele>567.51</ele><time></time></trkpt>
        <trkpt lat="28.7333606" lon="105.5712458"><ele>568.46</ele><time></time></trkpt>
        <trkpt lat="28.7334247" lon="105.571176"><ele>568.96</ele><time></time></trkpt>
        <trkpt lat="28.7335003" lon="105.5710984"><ele>569.29</ele><time></time></trkpt>
        <trkpt lat="28.7335991" lon="105.5710688"><ele>567.28</ele><time></time></trkpt>
        <trkpt lat="28.7336597" lon="105.5710496"><ele>563.98</ele><time></time></trkpt>
        <trkpt lat="28.7336901" lon="105.5711591"><ele>561.09</ele><time></time></trkpt>
        <trkpt lat="28.7337378" lon="105.571258"><ele>561.92</ele><time></time></trkpt>
        <trkpt lat="28.7338056" lon="105.5713416"><ele>560.93</ele><time></time></trkpt>
        <trkpt lat="28.7338784" lon="105.5714164"><ele>560.94</ele><time></time></trkpt>
        <trkpt lat="28.7339571" lon="105.5714779"><ele>561.47</ele><time></time></trkpt>
        <trkpt lat="28.7340302" lon="105.5715421"><ele>561.52</ele><time></time></trkpt>
        <trkpt lat="28.7340889" lon="105.571591"><ele>561.45</ele><time></time></trkpt>
        <trkpt lat="28.7341699" lon="105.5715933"><ele>561.82</ele><time></time></trkpt>
        <trkpt lat="28.734227" lon="105.5716689"><ele>562.2</ele><time></time></trkpt>
        <trkpt lat="28.7343071" lon="105.5717394"><ele>562.99</ele><time></time></trkpt>
        <trkpt lat="28.7343838" lon="105.5718058"><ele>563.73</ele><time></time></trkpt>
        <trkpt lat="28.7344626" lon="105.5718792"><ele>564.15</ele><time></time></trkpt>
        <trkpt lat="28.7345389" lon="105.5719495"><ele>563.56</ele><time></time></trkpt>
        <trkpt lat="28.7346028" lon="105.5720271"><ele>563.57</ele><time></time></trkpt>
        <trkpt lat="28.7346798" lon="105.572092"><ele>564.86</ele><time></time></trkpt>
        <trkpt lat="28.734727" lon="105.5721233"><ele>564.27</ele><time></time></trkpt>
        <trkpt lat="28.7348114" lon="105.5721258"><ele>563.73</ele><time></time></trkpt>
        <trkpt lat="28.734885" lon="105.5720548"><ele>566.06</ele><time></time></trkpt>
        <trkpt lat="28.7349697" lon="105.5720174"><ele>568.97</ele><time></time></trkpt>
        <trkpt lat="28.7350341" lon="105.5720729"><ele>571.33</ele><time></time></trkpt>
        <trkpt lat="28.7351089" lon="105.572151"><ele>571.86</ele><time></time></trkpt>
        <trkpt lat="28.7352005" lon="105.5721854"><ele>573.89</ele><time></time></trkpt>
        <trkpt lat="28.7352555" lon="105.5721953"><ele>573.51</ele><time></time></trkpt>
        <trkpt lat="28.7353377" lon="105.572223"><ele>573.13</ele><time></time></trkpt>
        <trkpt lat="28.7354341" lon="105.5722645"><ele>572.97</ele><time></time></trkpt>
        <trkpt lat="28.7355338" lon="105.5722658"><ele>574.52</ele><time></time></trkpt>
        <trkpt lat="28.7356233" lon="105.5722162"><ele>575.35</ele><time></time></trkpt>
        <trkpt lat="28.7357145" lon="105.5721712"><ele>575.75</ele><time></time></trkpt>
        <trkpt lat="28.7358128" lon="105.5721809"><ele>574.18</ele><time></time></trkpt>
        <trkpt lat="28.7359153" lon="105.5721717"><ele>575.24</ele><time></time></trkpt>
        <trkpt lat="28.7360193" lon="105.5721815"><ele>576.31</ele><time></time></trkpt>
        <trkpt lat="28.736111" lon="105.5722167"><ele>577.52</ele><time></time></trkpt>
        <trkpt lat="28.7362016" lon="105.5722771"><ele>578.68</ele><time></time></trkpt>
        <trkpt lat="28.7362906" lon="105.5723276"><ele>579.5</ele><time></time></trkpt>
        <trkpt lat="28.7363766" lon="105.572374"><ele>580.19</ele><time></time></trkpt>
        <trkpt lat="28.7364698" lon="105.5724282"><ele>581.78</ele><time></time></trkpt>
        <trkpt lat="28.7365686" lon="105.5724668"><ele>583.05</ele><time></time></trkpt>
        <trkpt lat="28.7366669" lon="105.5724752"><ele>582.71</ele><time></time></trkpt>
        <trkpt lat="28.7367663" lon="105.5724835"><ele>583.61</ele><time></time></trkpt>
        <trkpt lat="28.7368605" lon="105.5724889"><ele>584</ele><time></time></trkpt>
        <trkpt lat="28.7369589" lon="105.5725067"><ele>584.34</ele><time></time></trkpt>
        <trkpt lat="28.7370662" lon="105.5725085"><ele>585.31</ele><time></time></trkpt>
        <trkpt lat="28.7371493" lon="105.5725567"><ele>586.38</ele><time></time></trkpt>
        <trkpt lat="28.7372377" lon="105.5726021"><ele>589.01</ele><time></time></trkpt>
        <trkpt lat="28.7373135" lon="105.5725552"><ele>592.56</ele><time></time></trkpt>
        <trkpt lat="28.737361" lon="105.572615"><ele>594.39</ele><time></time></trkpt>
        <trkpt lat="28.7374326" lon="105.5725895"><ele>599.68</ele><time></time></trkpt>
        <trkpt lat="28.7374908" lon="105.5725132"><ele>605.74</ele><time></time></trkpt>
        <trkpt lat="28.7375654" lon="105.5725185"><ele>608.83</ele><time></time></trkpt>
        <trkpt lat="28.7376564" lon="105.5725065"><ele>612.28</ele><time></time></trkpt>
        <trkpt lat="28.7375758" lon="105.5725585"><ele>612.37</ele><time></time></trkpt>
        <trkpt lat="28.7375467" lon="105.5726579"><ele>615.9</ele><time></time></trkpt>
        <trkpt lat="28.7375442" lon="105.5727693"><ele>621.47</ele><time></time></trkpt>
        <trkpt lat="28.7375287" lon="105.5728756"><ele>625.2</ele><time></time></trkpt>
        <trkpt lat="28.7374907" lon="105.5729732"><ele>626.64</ele><time></time></trkpt>
        <trkpt lat="28.737437" lon="105.5730707"><ele>628.37</ele><time></time></trkpt>
        <trkpt lat="28.7374412" lon="105.5731705"><ele>631.27</ele><time></time></trkpt>
        <trkpt lat="28.7374966" lon="105.5732546"><ele>633.94</ele><time></time></trkpt>
        <trkpt lat="28.7375148" lon="105.5733591"><ele>637.03</ele><time></time></trkpt>
        <trkpt lat="28.7374701" lon="105.5734446"><ele>641.34</ele><time></time></trkpt>
        <trkpt lat="28.7373814" lon="105.5734572"><ele>643.04</ele><time></time></trkpt>
        <trkpt lat="28.7373599" lon="105.5735304"><ele>645.03</ele><time></time></trkpt>
        <trkpt lat="28.7374239" lon="105.5735674"><ele>647.22</ele><time></time></trkpt>
        <trkpt lat="28.737524" lon="105.5736014"><ele>648.55</ele><time></time></trkpt>
        <trkpt lat="28.7376305" lon="105.5736481"><ele>649.37</ele><time></time></trkpt>
        <trkpt lat="28.737728" lon="105.5736946"><ele>650.3</ele><time></time></trkpt>
        <trkpt lat="28.7378308" lon="105.5737435"><ele>651.38</ele><time></time></trkpt>
        <trkpt lat="28.7379357" lon="105.5737713"><ele>652.93</ele><time></time></trkpt>
        <trkpt lat="28.7380337" lon="105.5737581"><ele>653.15</ele><time></time></trkpt>
        <trkpt lat="28.7381238" lon="105.5737227"><ele>655.64</ele><time></time></trkpt>
        <trkpt lat="28.7382103" lon="105.5736628"><ele>658.38</ele><time></time></trkpt>
        <trkpt lat="28.738299" lon="105.5736012"><ele>659.25</ele><time></time></trkpt>
        <trkpt lat="28.7383649" lon="105.5735134"><ele>658.38</ele><time></time></trkpt>
        <trkpt lat="28.7384526" lon="105.5734587"><ele>657.15</ele><time></time></trkpt>
        <trkpt lat="28.7385422" lon="105.5735032"><ele>658.36</ele><time></time></trkpt>
        <trkpt lat="28.7386273" lon="105.5735589"><ele>657.43</ele><time></time></trkpt>
        <trkpt lat="28.7387301" lon="105.5735998"><ele>656.62</ele><time></time></trkpt>
        <trkpt lat="28.7388353" lon="105.5736361"><ele>655.69</ele><time></time></trkpt>
        <trkpt lat="28.7389305" lon="105.5736431"><ele>655.23</ele><time></time></trkpt>
        <trkpt lat="28.739002" lon="105.5735599"><ele>655.74</ele><time></time></trkpt>
        <trkpt lat="28.7390228" lon="105.5734443"><ele>655.19</ele><time></time></trkpt>
        <trkpt lat="28.7390123" lon="105.5733193"><ele>654.63</ele><time></time></trkpt>
        <trkpt lat="28.7390216" lon="105.5732028"><ele>654.21</ele><time></time></trkpt>
        <trkpt lat="28.7390803" lon="105.5731131"><ele>653.95</ele><time></time></trkpt>
        <trkpt lat="28.7391681" lon="105.5730506"><ele>653.92</ele><time></time></trkpt>
        <trkpt lat="28.7392556" lon="105.5730006"><ele>654.27</ele><time></time></trkpt>
        <trkpt lat="28.7393471" lon="105.5729564"><ele>654.36</ele><time></time></trkpt>
        <trkpt lat="28.7394389" lon="105.5729179"><ele>654.93</ele><time></time></trkpt>
        <trkpt lat="28.7395285" lon="105.5728875"><ele>655.44</ele><time></time></trkpt>
        <trkpt lat="28.7396173" lon="105.572839"><ele>655.89</ele><time></time></trkpt>
        <trkpt lat="28.739713" lon="105.5727961"><ele>655.5</ele><time></time></trkpt>
        <trkpt lat="28.7397957" lon="105.5727411"><ele>655.11</ele><time></time></trkpt>
        <trkpt lat="28.7398444" lon="105.5726551"><ele>654.57</ele><time></time></trkpt>
        <trkpt lat="28.7399091" lon="105.5725756"><ele>654.25</ele><time></time></trkpt>
        <trkpt lat="28.7399828" lon="105.5724983"><ele>654.52</ele><time></time></trkpt>
        <trkpt lat="28.740051" lon="105.5724246"><ele>655.04</ele><time></time></trkpt>
        <trkpt lat="28.7400785" lon="105.5723948"><ele>655.6</ele><time></time></trkpt>
        <trkpt lat="28.7400955" lon="105.5723058"><ele>656.04</ele><time></time></trkpt>
        <trkpt lat="28.7401246" lon="105.5722038"><ele>657.41</ele><time></time></trkpt>
        <trkpt lat="28.7401432" lon="105.5720966"><ele>658.78</ele><time></time></trkpt>
        <trkpt lat="28.7401723" lon="105.5719779"><ele>659.89</ele><time></time></trkpt>
        <trkpt lat="28.7402259" lon="105.5718685"><ele>661.08</ele><time></time></trkpt>
        <trkpt lat="28.7402947" lon="105.5717812"><ele>661.56</ele><time></time></trkpt>
        <trkpt lat="28.7403801" lon="105.5717142"><ele>662.14</ele><time></time></trkpt>
        <trkpt lat="28.7404693" lon="105.5716524"><ele>663.1</ele><time></time></trkpt>
        <trkpt lat="28.7405417" lon="105.5715748"><ele>664.3</ele><time></time></trkpt>
        <trkpt lat="28.7405575" lon="105.571477"><ele>666.11</ele><time></time></trkpt>
        <trkpt lat="28.7405557" lon="105.5713596"><ele>667.86</ele><time></time></trkpt>
        <trkpt lat="28.7405551" lon="105.5713185"><ele>671.56</ele><time></time></trkpt>
        <trkpt lat="28.7406047" lon="105.5712428"><ele>674.56</ele><time></time></trkpt>
        <trkpt lat="28.7406608" lon="105.5711603"><ele>676.89</ele><time></time></trkpt>
        <trkpt lat="28.7408682" lon="105.5708141"><ele>677.75</ele><time></time></trkpt>
        <trkpt lat="28.741254" lon="105.5703858"><ele>679.14</ele><time></time></trkpt>
        <trkpt lat="28.7414106" lon="105.5701483"><ele>678.81</ele><time></time></trkpt>
        <trkpt lat="28.7414286" lon="105.5699835"><ele>678.56</ele><time></time></trkpt>
        <trkpt lat="28.7413473" lon="105.5698487"><ele>678.37</ele><time></time></trkpt>
        <trkpt lat="28.7412422" lon="105.5697223"><ele>678.25</ele><time></time></trkpt>
        <trkpt lat="28.7411914" lon="105.5695759"><ele>677.92</ele><time></time></trkpt>
        <trkpt lat="28.741122" lon="105.5694375"><ele>677.7</ele><time></time></trkpt>
        <trkpt lat="28.7410497" lon="105.5693132"><ele>677.86</ele><time></time></trkpt>
        <trkpt lat="28.7410087" lon="105.5691918"><ele>678.5</ele><time></time></trkpt>
        <trkpt lat="28.7410354" lon="105.5690696"><ele>679.01</ele><time></time></trkpt>
        <trkpt lat="28.7411176" lon="105.5689384"><ele>679.59</ele><time></time></trkpt>
        <trkpt lat="28.7412194" lon="105.5687809"><ele>679.71</ele><time></time></trkpt>
        <trkpt lat="28.74131" lon="105.5686155"><ele>679.65</ele><time></time></trkpt>
        <trkpt lat="28.7413626" lon="105.5684501"><ele>679.75</ele><time></time></trkpt>
        <trkpt lat="28.7414" lon="105.5683013"><ele>679.81</ele><time></time></trkpt>
        <trkpt lat="28.7414466" lon="105.5681833"><ele>679.72</ele><time></time></trkpt>
        <trkpt lat="28.74157" lon="105.5680748"><ele>678.8</ele><time></time></trkpt>
        <trkpt lat="28.741672" lon="105.568017"><ele>677.41</ele><time></time></trkpt>
        <trkpt lat="28.7417324" lon="105.5678895"><ele>675.9</ele><time></time></trkpt>
        <trkpt lat="28.7416898" lon="105.5678048"><ele>674.73</ele><time></time></trkpt>
        <trkpt lat="28.7415807" lon="105.5677414"><ele>673.37</ele><time></time></trkpt>
        <trkpt lat="28.7414355" lon="105.5676578"><ele>672.31</ele><time></time></trkpt>
        <trkpt lat="28.7412825" lon="105.5675772"><ele>672.01</ele><time></time></trkpt>
        <trkpt lat="28.7411438" lon="105.5674952"><ele>672.31</ele><time></time></trkpt>
        <trkpt lat="28.7410184" lon="105.567419"><ele>671.98</ele><time></time></trkpt>
        <trkpt lat="28.7409112" lon="105.5673628"><ele>671.66</ele><time></time></trkpt>
        <trkpt lat="28.740814" lon="105.5673115"><ele>670.02</ele><time></time></trkpt>
        <trkpt lat="28.7407258" lon="105.5672495"><ele>667.75</ele><time></time></trkpt>
        <trkpt lat="28.7406485" lon="105.5671641"><ele>665.5</ele><time></time></trkpt>
        <trkpt lat="28.7405847" lon="105.5670595"><ele>663.53</ele><time></time></trkpt>
        <trkpt lat="28.7405267" lon="105.5669513"><ele>661.56</ele><time></time></trkpt>
        <trkpt lat="28.7404604" lon="105.5668447"><ele>659.92</ele><time></time></trkpt>
        <trkpt lat="28.7403994" lon="105.5667416"><ele>658.91</ele><time></time></trkpt>
        <trkpt lat="28.7403625" lon="105.5666339"><ele>658.36</ele><time></time></trkpt>
        <trkpt lat="28.7403669" lon="105.5664987"><ele>657.74</ele><time></time></trkpt>
        <trkpt lat="28.7403989" lon="105.5663503"><ele>656.93</ele><time></time></trkpt>
        <trkpt lat="28.740427" lon="105.5661992"><ele>656.07</ele><time></time></trkpt>
        <trkpt lat="28.7404469" lon="105.5660746"><ele>654.88</ele><time></time></trkpt>
        <trkpt lat="28.7404646" lon="105.5659103"><ele>653.58</ele><time></time></trkpt>
        <trkpt lat="28.7404485" lon="105.5657606"><ele>652.26</ele><time></time></trkpt>
        <trkpt lat="28.7404727" lon="105.5656468"><ele>650.83</ele><time></time></trkpt>
        <trkpt lat="28.7405756" lon="105.5655934"><ele>648.58</ele><time></time></trkpt>
        <trkpt lat="28.7407265" lon="105.5655761"><ele>645.96</ele><time></time></trkpt>
        <trkpt lat="28.7408565" lon="105.5655072"><ele>642.45</ele><time></time></trkpt>
        <trkpt lat="28.7408732" lon="105.5653541"><ele>638.81</ele><time></time></trkpt>
        <trkpt lat="28.740889" lon="105.5652032"><ele>635.06</ele><time></time></trkpt>
        <trkpt lat="28.7409549" lon="105.5651222"><ele>628.84</ele><time></time></trkpt>
        <trkpt lat="28.7409924" lon="105.5652017"><ele>624.76</ele><time></time></trkpt>
        <trkpt lat="28.7410099" lon="105.5654725"><ele>622.17</ele><time></time></trkpt>
        <trkpt lat="28.7410673" lon="105.5656813"><ele>621.88</ele><time></time></trkpt>
        <trkpt lat="28.7411377" lon="105.5658502"><ele>621.07</ele><time></time></trkpt>
        <trkpt lat="28.7412041" lon="105.5659897"><ele>620.2</ele><time></time></trkpt>
        <trkpt lat="28.7412594" lon="105.5661115"><ele>619.25</ele><time></time></trkpt>
        <trkpt lat="28.7412958" lon="105.5662318"><ele>618.41</ele><time></time></trkpt>
        <trkpt lat="28.7413225" lon="105.5663542"><ele>617.34</ele><time></time></trkpt>
        <trkpt lat="28.7413485" lon="105.5664855"><ele>616.09</ele><time></time></trkpt>
        <trkpt lat="28.7413897" lon="105.5666326"><ele>614.16</ele><time></time></trkpt>
        <trkpt lat="28.7414569" lon="105.5667855"><ele>612.31</ele><time></time></trkpt>
        <trkpt lat="28.7415208" lon="105.5669363"><ele>610.46</ele><time></time></trkpt>
        <trkpt lat="28.7415954" lon="105.567078"><ele>608.84</ele><time></time></trkpt>
        <trkpt lat="28.7416905" lon="105.5671969"><ele>607.64</ele><time></time></trkpt>
        <trkpt lat="28.7417989" lon="105.5672759"><ele>606.46</ele><time></time></trkpt>
        <trkpt lat="28.7419099" lon="105.5673427"><ele>605.41</ele><time></time></trkpt>
        <trkpt lat="28.7420161" lon="105.5674205"><ele>604.31</ele><time></time></trkpt>
        <trkpt lat="28.7421163" lon="105.5675255"><ele>603.23</ele><time></time></trkpt>
        <trkpt lat="28.7422096" lon="105.5676656"><ele>602.51</ele><time></time></trkpt>
        <trkpt lat="28.7423105" lon="105.5678209"><ele>601.93</ele><time></time></trkpt>
        <trkpt lat="28.7424183" lon="105.5679645"><ele>601.24</ele><time></time></trkpt>
        <trkpt lat="28.7425162" lon="105.5681"><ele>600.13</ele><time></time></trkpt>
        <trkpt lat="28.7425996" lon="105.568227"><ele>599.16</ele><time></time></trkpt>
        <trkpt lat="28.7426809" lon="105.5683489"><ele>598.69</ele><time></time></trkpt>
        <trkpt lat="28.7427648" lon="105.5684763"><ele>598.49</ele><time></time></trkpt>
        <trkpt lat="28.7428552" lon="105.5686124"><ele>598.47</ele><time></time></trkpt>
        <trkpt lat="28.7429475" lon="105.568722"><ele>598.51</ele><time></time></trkpt>
        <trkpt lat="28.7430447" lon="105.5688146"><ele>598.17</ele><time></time></trkpt>
        <trkpt lat="28.7431554" lon="105.5688873"><ele>598.08</ele><time></time></trkpt>
        <trkpt lat="28.7433113" lon="105.5689213"><ele>597.43</ele><time></time></trkpt>
        <trkpt lat="28.7434861" lon="105.5689127"><ele>596.96</ele><time></time></trkpt>
        <trkpt lat="28.7436637" lon="105.5689044"><ele>596.32</ele><time></time></trkpt>
        <trkpt lat="28.7438411" lon="105.5689082"><ele>595.32</ele><time></time></trkpt>
        <trkpt lat="28.7440009" lon="105.5689111"><ele>594.27</ele><time></time></trkpt>
        <trkpt lat="28.7441582" lon="105.5689318"><ele>593.11</ele><time></time></trkpt>
        <trkpt lat="28.7443128" lon="105.5689533"><ele>591.62</ele><time></time></trkpt>
        <trkpt lat="28.7444574" lon="105.5689489"><ele>590.44</ele><time></time></trkpt>
        <trkpt lat="28.7445864" lon="105.5689332"><ele>588.94</ele><time></time></trkpt>
        <trkpt lat="28.7446887" lon="105.5689184"><ele>587.58</ele><time></time></trkpt>
        <trkpt lat="28.7447765" lon="105.5689319"><ele>586.67</ele><time></time></trkpt>
        <trkpt lat="28.7447934" lon="105.5689344"><ele>585.99</ele><time></time></trkpt>
        <trkpt lat="28.7448505" lon="105.5689082"><ele>585.65</ele><time></time></trkpt>
        <trkpt lat="28.7448611" lon="105.5688872"><ele>585.53</ele><time></time></trkpt>
        <trkpt lat="28.7448611" lon="105.5688872"><ele>585.53</ele><time></time></trkpt>
        <trkpt lat="28.7470717" lon="105.568236"><ele>501.75</ele><time></time></trkpt>
        <trkpt lat="28.7469363" lon="105.568266"><ele>501.75</ele><time></time></trkpt>
        <trkpt lat="28.7468135" lon="105.5683181"><ele>517.32</ele><time></time></trkpt>
        <trkpt lat="28.7466666" lon="105.5684421"><ele>527.51</ele><time></time></trkpt>
        <trkpt lat="28.7465638" lon="105.5685255"><ele>534</ele><time></time></trkpt>
        <trkpt lat="28.7464724" lon="105.568564"><ele>538.05</ele><time></time></trkpt>
        <trkpt lat="28.746369" lon="105.5685836"><ele>540.45</ele><time></time></trkpt>
        <trkpt lat="28.7462566" lon="105.5686065"><ele>542.02</ele><time></time></trkpt>
        <trkpt lat="28.7461576" lon="105.5686671"><ele>544.12</ele><time></time></trkpt>
        <trkpt lat="28.7460719" lon="105.5687437"><ele>545.85</ele><time></time></trkpt>
        <trkpt lat="28.7459831" lon="105.5688241"><ele>547.37</ele><time></time></trkpt>
        <trkpt lat="28.7458821" lon="105.5689044"><ele>548.87</ele><time></time></trkpt>
        <trkpt lat="28.7457749" lon="105.5689696"><ele>549.99</ele><time></time></trkpt>
        <trkpt lat="28.7456618" lon="105.5690199"><ele>550.7</ele><time></time></trkpt>
        <trkpt lat="28.7455449" lon="105.5690612"><ele>551.24</ele><time></time></trkpt>
        <trkpt lat="28.7454291" lon="105.5691189"><ele>551.6</ele><time></time></trkpt>
        <trkpt lat="28.7453499" lon="105.5692282"><ele>552.28</ele><time></time></trkpt>
        <trkpt lat="28.7453085" lon="105.5693679"><ele>553.1</ele><time></time></trkpt>
        <trkpt lat="28.745294" lon="105.5695148"><ele>553.9</ele><time></time></trkpt>
        <trkpt lat="28.745297" lon="105.5696694"><ele>553.76</ele><time></time></trkpt>
        <trkpt lat="28.7453223" lon="105.5698128"><ele>553.71</ele><time></time></trkpt>
        <trkpt lat="28.7453661" lon="105.5699691"><ele>553.56</ele><time></time></trkpt>
        <trkpt lat="28.7454183" lon="105.5701275"><ele>553.58</ele><time></time></trkpt>
        <trkpt lat="28.7454764" lon="105.5702771"><ele>553.53</ele><time></time></trkpt>
        <trkpt lat="28.7455259" lon="105.5704182"><ele>554</ele><time></time></trkpt>
        <trkpt lat="28.745548" lon="105.5705573"><ele>555.3</ele><time></time></trkpt>
        <trkpt lat="28.7455242" lon="105.5706878"><ele>556.44</ele><time></time></trkpt>
        <trkpt lat="28.7454526" lon="105.5707959"><ele>557.57</ele><time></time></trkpt>
        <trkpt lat="28.7453566" lon="105.5708755"><ele>558.85</ele><time></time></trkpt>
        <trkpt lat="28.7452182" lon="105.5708668"><ele>560.37</ele><time></time></trkpt>
        <trkpt lat="28.7451882" lon="105.5706866"><ele>562.78</ele><time></time></trkpt>
        <trkpt lat="28.7451836" lon="105.5705242"><ele>565.68</ele><time></time></trkpt>
        <trkpt lat="28.7451378" lon="105.570332"><ele>567.83</ele><time></time></trkpt>
        <trkpt lat="28.7450927" lon="105.570185"><ele>570.31</ele><time></time></trkpt>
        <trkpt lat="28.7450443" lon="105.5700439"><ele>572.23</ele><time></time></trkpt>
        <trkpt lat="28.7449778" lon="105.56994"><ele>573.56</ele><time></time></trkpt>
        <trkpt lat="28.744864" lon="105.5698281"><ele>575.22</ele><time></time></trkpt>
        <trkpt lat="28.7447886" lon="105.5697334"><ele>576.29</ele><time></time></trkpt>
        <trkpt lat="28.744744" lon="105.5696232"><ele>577.12</ele><time></time></trkpt>
        <trkpt lat="28.7447226" lon="105.5695"><ele>577.7</ele><time></time></trkpt>
        <trkpt lat="28.7447212" lon="105.569376"><ele>578.43</ele><time></time></trkpt>
        <trkpt lat="28.744744" lon="105.5692547"><ele>579.04</ele><time></time></trkpt>
        <trkpt lat="28.7447809" lon="105.5691398"><ele>579.74</ele><time></time></trkpt>
        <trkpt lat="28.7448128" lon="105.5690322"><ele>580.27</ele><time></time></trkpt>
        <trkpt lat="28.7448114" lon="105.5689068"><ele>581.08</ele><time></time></trkpt>
        <trkpt lat="28.7447716" lon="105.5688622"><ele>582.12</ele><time></time></trkpt>
        <trkpt lat="28.744823" lon="105.5688813"><ele>582.96</ele><time></time></trkpt>
        <trkpt lat="28.7448338" lon="105.5690287"><ele>583.84</ele><time></time></trkpt>
        <trkpt lat="28.7448026" lon="105.569128"><ele>585.88</ele><time></time></trkpt>
        <trkpt lat="28.7447219" lon="105.5691852"><ele>586.01</ele><time></time></trkpt>
        <trkpt lat="28.7446271" lon="105.5692282"><ele>584.41</ele><time></time></trkpt>
        <trkpt lat="28.7445329" lon="105.5692693"><ele>584.46</ele><time></time></trkpt>
        <trkpt lat="28.7444741" lon="105.5693604"><ele>583.48</ele><time></time></trkpt>
        <trkpt lat="28.7444498" lon="105.5694085"><ele>584.58</ele><time></time></trkpt>
        <trkpt lat="28.7443876" lon="105.5694678"><ele>585.82</ele><time></time></trkpt>
        <trkpt lat="28.7443005" lon="105.5694161"><ele>590.89</ele><time></time></trkpt>
        <trkpt lat="28.7442805" lon="105.5694068"><ele>596.57</ele><time></time></trkpt>
        <trkpt lat="28.7442073" lon="105.569434"><ele>599.91</ele><time></time></trkpt>
        <trkpt lat="28.7441812" lon="105.569449"><ele>603.22</ele><time></time></trkpt>
        <trkpt lat="28.7441316" lon="105.5695192"><ele>605.29</ele><time></time></trkpt>
        <trkpt lat="28.7441038" lon="105.5694408"><ele>607.85</ele><time></time></trkpt>
        <trkpt lat="28.7441623" lon="105.5693439"><ele>613.37</ele><time></time></trkpt>
        <trkpt lat="28.7441776" lon="105.5694468"><ele>620.08</ele><time></time></trkpt>
        <trkpt lat="28.7441411" lon="105.5695587"><ele>624.02</ele><time></time></trkpt>
        <trkpt lat="28.7440891" lon="105.5696586"><ele>624.14</ele><time></time></trkpt>
        <trkpt lat="28.7440597" lon="105.5697643"><ele>624.57</ele><time></time></trkpt>
        <trkpt lat="28.7441096" lon="105.5698365"><ele>624.65</ele><time></time></trkpt>
        <trkpt lat="28.74419" lon="105.5698977"><ele>626.49</ele><time></time></trkpt>
        <trkpt lat="28.7442893" lon="105.5699593"><ele>626.6</ele><time></time></trkpt>
        <trkpt lat="28.744209" lon="105.57002"><ele>629.01</ele><time></time></trkpt>
        <trkpt lat="28.7441683" lon="105.5700939"><ele>629.79</ele><time></time></trkpt>
        <trkpt lat="28.7442242" lon="105.5701932"><ele>631.46</ele><time></time></trkpt>
        <trkpt lat="28.7441975" lon="105.5702919"><ele>638.95</ele><time></time></trkpt>
        <trkpt lat="28.7441361" lon="105.5703712"><ele>643.17</ele><time></time></trkpt>
        <trkpt lat="28.7440825" lon="105.5703066"><ele>647.59</ele><time></time></trkpt>
        <trkpt lat="28.7441253" lon="105.570223"><ele>649.83</ele><time></time></trkpt>
        <trkpt lat="28.7441252" lon="105.570113"><ele>653</ele><time></time></trkpt>
        <trkpt lat="28.74415" lon="105.5699999"><ele>654.03</ele><time></time></trkpt>
        <trkpt lat="28.7441403" lon="105.5699426"><ele>655.27</ele><time></time></trkpt>
        <trkpt lat="28.7440329" lon="105.5699208"><ele>656.62</ele><time></time></trkpt>
        <trkpt lat="28.7439811" lon="105.5698266"><ele>655.29</ele><time></time></trkpt>
        <trkpt lat="28.7439354" lon="105.5698058"><ele>654.97</ele><time></time></trkpt>
        <trkpt lat="28.7439298" lon="105.5697067"><ele>654.41</ele><time></time></trkpt>
        <trkpt lat="28.7439721" lon="105.5696039"><ele>654.8</ele><time></time></trkpt>
        <trkpt lat="28.7440116" lon="105.5694929"><ele>654.72</ele><time></time></trkpt>
        <trkpt lat="28.7439418" lon="105.5695641"><ele>656.99</ele><time></time></trkpt>
        <trkpt lat="28.7438667" lon="105.5696277"><ele>663.32</ele><time></time></trkpt>
        <trkpt lat="28.7437796" lon="105.5696624"><ele>669.81</ele><time></time></trkpt>
        <trkpt lat="28.7436961" lon="105.5697085"><ele>677.41</ele><time></time></trkpt>
        <trkpt lat="28.7436041" lon="105.5697359"><ele>684.95</ele><time></time></trkpt>
        <trkpt lat="28.7435196" lon="105.5697847"><ele>690.78</ele><time></time></trkpt>
        <trkpt lat="28.7434783" lon="105.5698862"><ele>695.54</ele><time></time></trkpt>
        <trkpt lat="28.7434325" lon="105.5699898"><ele>698.81</ele><time></time></trkpt>
        <trkpt lat="28.743382" lon="105.5700895"><ele>700.89</ele><time></time></trkpt>
        <trkpt lat="28.7433297" lon="105.5701939"><ele>702.65</ele><time></time></trkpt>
        <trkpt lat="28.7432761" lon="105.5702878"><ele>704.89</ele><time></time></trkpt>
        <trkpt lat="28.7432108" lon="105.5703277"><ele>706.79</ele><time></time></trkpt>
        <trkpt lat="28.7431357" lon="105.5703816"><ele>707.41</ele><time></time></trkpt>
        <trkpt lat="28.7430612" lon="105.570446"><ele>707.3</ele><time></time></trkpt>
        <trkpt lat="28.7429788" lon="105.5705071"><ele>704.9</ele><time></time></trkpt>
        <trkpt lat="28.7429563" lon="105.5705315"><ele>702.11</ele><time></time></trkpt>
        <trkpt lat="28.742943" lon="105.5706101"><ele>700.44</ele><time></time></trkpt>
        <trkpt lat="28.7429482" lon="105.5707254"><ele>698.62</ele><time></time></trkpt>
        <trkpt lat="28.7429851" lon="105.5707907"><ele>697.59</ele><time></time></trkpt>
        <trkpt lat="28.7430574" lon="105.5708624"><ele>696.29</ele><time></time></trkpt>
        <trkpt lat="28.7431052" lon="105.5709553"><ele>695.51</ele><time></time></trkpt>
        <trkpt lat="28.7431619" lon="105.5710541"><ele>695.22</ele><time></time></trkpt>
        <trkpt lat="28.7432458" lon="105.571124"><ele>697.89</ele><time></time></trkpt>
        <trkpt lat="28.7433407" lon="105.5711479"><ele>700.87</ele><time></time></trkpt>
        <trkpt lat="28.7434504" lon="105.5711483"><ele>701.24</ele><time></time></trkpt>
        <trkpt lat="28.7435638" lon="105.5711452"><ele>700.15</ele><time></time></trkpt>
        <trkpt lat="28.7436624" lon="105.5711471"><ele>698.45</ele><time></time></trkpt>
        <trkpt lat="28.7437545" lon="105.5711444"><ele>699.25</ele><time></time></trkpt>
        <trkpt lat="28.7438226" lon="105.5712091"><ele>700.88</ele><time></time></trkpt>
        <trkpt lat="28.7437856" lon="105.5712975"><ele>701.94</ele><time></time></trkpt>
        <trkpt lat="28.7436939" lon="105.5713113"><ele>701.6</ele><time></time></trkpt>
        <trkpt lat="28.7436418" lon="105.5712978"><ele>702.01</ele><time></time></trkpt>
        <trkpt lat="28.7435635" lon="105.5713174"><ele>702.06</ele><time></time></trkpt>
        <trkpt lat="28.7435802" lon="105.5713898"><ele>702.39</ele><time></time></trkpt>
        <trkpt lat="28.7435801" lon="105.5714969"><ele>700.86</ele><time></time></trkpt>
        <trkpt lat="28.7435278" lon="105.5715833"><ele>698.54</ele><time></time></trkpt>
        <trkpt lat="28.7434464" lon="105.5716463"><ele>699.74</ele><time></time></trkpt>
        <trkpt lat="28.7433444" lon="105.5716852"><ele>700.27</ele><time></time></trkpt>
        <trkpt lat="28.7432404" lon="105.5717232"><ele>699.64</ele><time></time></trkpt>
        <trkpt lat="28.7431592" lon="105.5717858"><ele>698.99</ele><time></time></trkpt>
        <trkpt lat="28.7430966" lon="105.5718798"><ele>698.99</ele><time></time></trkpt>
        <trkpt lat="28.7430716" lon="105.5719993"><ele>699.06</ele><time></time></trkpt>
        <trkpt lat="28.7430773" lon="105.5721265"><ele>699.67</ele><time></time></trkpt>
        <trkpt lat="28.7430886" lon="105.5722508"><ele>699.78</ele><time></time></trkpt>
        <trkpt lat="28.743079" lon="105.5723665"><ele>700.43</ele><time></time></trkpt>
        <trkpt lat="28.7430779" lon="105.5724768"><ele>699.78</ele><time></time></trkpt>
        <trkpt lat="28.7431042" lon="105.5725851"><ele>698.51</ele><time></time></trkpt>
        <trkpt lat="28.7431445" lon="105.5726816"><ele>696.75</ele><time></time></trkpt>
        <trkpt lat="28.743182" lon="105.5727799"><ele>695.27</ele><time></time></trkpt>
        <trkpt lat="28.743217" lon="105.5728799"><ele>693.34</ele><time></time></trkpt>
        <trkpt lat="28.743199" lon="105.5729801"><ele>692.39</ele><time></time></trkpt>
        <trkpt lat="28.7431471" lon="105.5730699"><ele>692.46</ele><time></time></trkpt>
        <trkpt lat="28.7430705" lon="105.5731507"><ele>692.31</ele><time></time></trkpt>
        <trkpt lat="28.7429771" lon="105.5731988"><ele>692.82</ele><time></time></trkpt>
        <trkpt lat="28.7428807" lon="105.5732185"><ele>695.88</ele><time></time></trkpt>
        <trkpt lat="28.7427761" lon="105.5732335"><ele>697.93</ele><time></time></trkpt>
        <trkpt lat="28.742727" lon="105.5733091"><ele>698.56</ele><time></time></trkpt>
        <trkpt lat="28.7427068" lon="105.5734209"><ele>698.01</ele><time></time></trkpt>
        <trkpt lat="28.7426964" lon="105.5735284"><ele>697.03</ele><time></time></trkpt>
        <trkpt lat="28.7426607" lon="105.5736321"><ele>695.68</ele><time></time></trkpt>
        <trkpt lat="28.7425983" lon="105.573714"><ele>694.2</ele><time></time></trkpt>
        <trkpt lat="28.7425122" lon="105.5737625"><ele>692.7</ele><time></time></trkpt>
        <trkpt lat="28.7424839" lon="105.5737753"><ele>691.14</ele><time></time></trkpt>
        <trkpt lat="28.742407" lon="105.5737416"><ele>689.88</ele><time></time></trkpt>
        <trkpt lat="28.742314" lon="105.57371"><ele>687.82</ele><time></time></trkpt>
        <trkpt lat="28.7422132" lon="105.5736796"><ele>686.26</ele><time></time></trkpt>
        <trkpt lat="28.7421034" lon="105.57365"><ele>685.6</ele><time></time></trkpt>
        <trkpt lat="28.7419954" lon="105.5736492"><ele>685.67</ele><time></time></trkpt>
        <trkpt lat="28.7419025" lon="105.5736653"><ele>687.26</ele><time></time></trkpt>
        <trkpt lat="28.7418531" lon="105.573748"><ele>688.67</ele><time></time></trkpt>
        <trkpt lat="28.7417796" lon="105.5737945"><ele>687.79</ele><time></time></trkpt>
        <trkpt lat="28.7416874" lon="105.5738085"><ele>683.36</ele><time></time></trkpt>
        <trkpt lat="28.7416037" lon="105.5738512"><ele>680.93</ele><time></time></trkpt>
        <trkpt lat="28.7415117" lon="105.5738962"><ele>680.1</ele><time></time></trkpt>
        <trkpt lat="28.7414187" lon="105.5739415"><ele>675.48</ele><time></time></trkpt>
        <trkpt lat="28.7414638" lon="105.5739612"><ele>671.4</ele><time></time></trkpt>
        <trkpt lat="28.7413999" lon="105.5739625"><ele>668.63</ele><time></time></trkpt>
        <trkpt lat="28.7412938" lon="105.5739529"><ele>667.07</ele><time></time></trkpt>
        <trkpt lat="28.7411902" lon="105.5739567"><ele>666.03</ele><time></time></trkpt>
        <trkpt lat="28.7410885" lon="105.5739421"><ele>664.76</ele><time></time></trkpt>
        <trkpt lat="28.7409971" lon="105.5738961"><ele>663.36</ele><time></time></trkpt>
        <trkpt lat="28.7409021" lon="105.5738479"><ele>661.95</ele><time></time></trkpt>
        <trkpt lat="28.7408178" lon="105.5737942"><ele>660.57</ele><time></time></trkpt>
        <trkpt lat="28.7407246" lon="105.5737484"><ele>659.12</ele><time></time></trkpt>
        <trkpt lat="28.740635" lon="105.573703"><ele>659.9</ele><time></time></trkpt>
        <trkpt lat="28.740541" lon="105.5736923"><ele>659.2</ele><time></time></trkpt>
        <trkpt lat="28.7404503" lon="105.5736814"><ele>657.68</ele><time></time></trkpt>
        <trkpt lat="28.7403553" lon="105.573684"><ele>655.98</ele><time></time></trkpt>
        <trkpt lat="28.740264" lon="105.5736618"><ele>654.88</ele><time></time></trkpt>
        <trkpt lat="28.740167" lon="105.5736756"><ele>653.05</ele><time></time></trkpt>
        <trkpt lat="28.7400726" lon="105.5736932"><ele>649.44</ele><time></time></trkpt>
        <trkpt lat="28.7400208" lon="105.5736814"><ele>646.84</ele><time></time></trkpt>
        <trkpt lat="28.7399694" lon="105.5737458"><ele>645.15</ele><time></time></trkpt>
        <trkpt lat="28.7398874" lon="105.5738001"><ele>643.53</ele><time></time></trkpt>
        <trkpt lat="28.7398071" lon="105.5738668"><ele>642.73</ele><time></time></trkpt>
        <trkpt lat="28.7398288" lon="105.573956"><ele>642.25</ele><time></time></trkpt>
        <trkpt lat="28.7399135" lon="105.5740186"><ele>642.45</ele><time></time></trkpt>
        <trkpt lat="28.7399965" lon="105.5740935"><ele>644</ele><time></time></trkpt>
        <trkpt lat="28.7400594" lon="105.5741862"><ele>644.97</ele><time></time></trkpt>
        <trkpt lat="28.7401046" lon="105.5742924"><ele>644.71</ele><time></time></trkpt>
        <trkpt lat="28.7401381" lon="105.5743966"><ele>644.11</ele><time></time></trkpt>
        <trkpt lat="28.7401277" lon="105.5745004"><ele>644.09</ele><time></time></trkpt>
        <trkpt lat="28.7401167" lon="105.5745433"><ele>644.29</ele><time></time></trkpt>
        <trkpt lat="28.7401002" lon="105.5746266"><ele>644.61</ele><time></time></trkpt>
        <trkpt lat="28.7400427" lon="105.5747006"><ele>643.75</ele><time></time></trkpt>
        <trkpt lat="28.7399644" lon="105.5747775"><ele>643.17</ele><time></time></trkpt>
        <trkpt lat="28.7398616" lon="105.574815"><ele>642.9</ele><time></time></trkpt>
        <trkpt lat="28.739768" lon="105.5748101"><ele>642.49</ele><time></time></trkpt>
        <trkpt lat="28.7397067" lon="105.5748904"><ele>642.07</ele><time></time></trkpt>
        <trkpt lat="28.7396552" lon="105.5749943"><ele>644.11</ele><time></time></trkpt>
        <trkpt lat="28.7396038" lon="105.5750998"><ele>646.2</ele><time></time></trkpt>
        <trkpt lat="28.7395559" lon="105.575201"><ele>646.98</ele><time></time></trkpt>
        <trkpt lat="28.7395165" lon="105.5753001"><ele>648.28</ele><time></time></trkpt>
        <trkpt lat="28.7394741" lon="105.5754087"><ele>648.27</ele><time></time></trkpt>
        <trkpt lat="28.7394617" lon="105.5755253"><ele>647.78</ele><time></time></trkpt>
        <trkpt lat="28.7394507" lon="105.5756473"><ele>647.56</ele><time></time></trkpt>
        <trkpt lat="28.7394217" lon="105.575763"><ele>646.25</ele><time></time></trkpt>
        <trkpt lat="28.7393668" lon="105.5758474"><ele>645.36</ele><time></time></trkpt>
        <trkpt lat="28.7393149" lon="105.5759387"><ele>643.65</ele><time></time></trkpt>
        <trkpt lat="28.7392319" lon="105.5759906"><ele>642.91</ele><time></time></trkpt>
        <trkpt lat="28.7391456" lon="105.576039"><ele>642.6</ele><time></time></trkpt>
        <trkpt lat="28.7390632" lon="105.5760968"><ele>642.61</ele><time></time></trkpt>
        <trkpt lat="28.7389808" lon="105.5761438"><ele>642.41</ele><time></time></trkpt>
        <trkpt lat="28.7388892" lon="105.5761686"><ele>641.47</ele><time></time></trkpt>
        <trkpt lat="28.7387961" lon="105.5762157"><ele>641.55</ele><time></time></trkpt>
        <trkpt lat="28.7387167" lon="105.5762886"><ele>643.75</ele><time></time></trkpt>
        <trkpt lat="28.738758" lon="105.5763609"><ele>644.02</ele><time></time></trkpt>
        <trkpt lat="28.7387945" lon="105.5763748"><ele>642.56</ele><time></time></trkpt>
        <trkpt lat="28.7388544" lon="105.5764316"><ele>641.73</ele><time></time></trkpt>
        <trkpt lat="28.7389462" lon="105.57644"><ele>640.71</ele><time></time></trkpt>
        <trkpt lat="28.7390131" lon="105.5765026"><ele>639.45</ele><time></time></trkpt>
        <trkpt lat="28.7390924" lon="105.5765564"><ele>636.64</ele><time></time></trkpt>
        <trkpt lat="28.7391852" lon="105.5765901"><ele>636.71</ele><time></time></trkpt>
        <trkpt lat="28.739281" lon="105.5766348"><ele>637.08</ele><time></time></trkpt>
        <trkpt lat="28.739344" lon="105.5766689"><ele>637.23</ele><time></time></trkpt>
        <trkpt lat="28.739421" lon="105.5767019"><ele>637.83</ele><time></time></trkpt>
        <trkpt lat="28.7394963" lon="105.5767584"><ele>638.15</ele><time></time></trkpt>
        <trkpt lat="28.7395454" lon="105.5768542"><ele>636.97</ele><time></time></trkpt>
        <trkpt lat="28.7395846" lon="105.5769652"><ele>637.51</ele><time></time></trkpt>
        <trkpt lat="28.7396166" lon="105.5770697"><ele>638.18</ele><time></time></trkpt>
        <trkpt lat="28.7396328" lon="105.5771753"><ele>639.47</ele><time></time></trkpt>
        <trkpt lat="28.7395972" lon="105.577271"><ele>640.93</ele><time></time></trkpt>
        <trkpt lat="28.7395641" lon="105.5773812"><ele>640.47</ele><time></time></trkpt>
        <trkpt lat="28.7395795" lon="105.5774917"><ele>639.87</ele><time></time></trkpt>
        <trkpt lat="28.7396594" lon="105.5775356"><ele>640.7</ele><time></time></trkpt>
        <trkpt lat="28.7397574" lon="105.5775437"><ele>640.92</ele><time></time></trkpt>
        <trkpt lat="28.739861" lon="105.5775531"><ele>640.83</ele><time></time></trkpt>
        <trkpt lat="28.7398907" lon="105.5775457"><ele>640.91</ele><time></time></trkpt>
        <trkpt lat="28.7399593" lon="105.5775532"><ele>641.6</ele><time></time></trkpt>
        <trkpt lat="28.7400123" lon="105.5776268"><ele>643.07</ele><time></time></trkpt>
        <trkpt lat="28.7400675" lon="105.5777132"><ele>645.23</ele><time></time></trkpt>
        <trkpt lat="28.7401432" lon="105.5777937"><ele>648.85</ele><time></time></trkpt>
        <trkpt lat="28.7401988" lon="105.5778919"><ele>651.62</ele><time></time></trkpt>
        <trkpt lat="28.7402493" lon="105.5779957"><ele>653.63</ele><time></time></trkpt>
        <trkpt lat="28.7402838" lon="105.5781043"><ele>653.56</ele><time></time></trkpt>
        <trkpt lat="28.7403457" lon="105.5781906"><ele>653.82</ele><time></time></trkpt>
        <trkpt lat="28.7403558" lon="105.5781982"><ele>654.34</ele><time></time></trkpt>
        <trkpt lat="28.7403958" lon="105.5782628"><ele>654.82</ele><time></time></trkpt>
        <trkpt lat="28.7404477" lon="105.5783465"><ele>654.71</ele><time></time></trkpt>
        <trkpt lat="28.7405033" lon="105.5784324"><ele>658.01</ele><time></time></trkpt>
        <trkpt lat="28.7405107" lon="105.5785429"><ele>660.36</ele><time></time></trkpt>
        <trkpt lat="28.7404974" lon="105.5786578"><ele>662.56</ele><time></time></trkpt>
        <trkpt lat="28.7404769" lon="105.5787749"><ele>663.86</ele><time></time></trkpt>
        <trkpt lat="28.7404799" lon="105.5788944"><ele>663.61</ele><time></time></trkpt>
        <trkpt lat="28.7404611" lon="105.5790179"><ele>663.48</ele><time></time></trkpt>
        <trkpt lat="28.7404836" lon="105.5791241"><ele>663.08</ele><time></time></trkpt>
        <trkpt lat="28.7405188" lon="105.5792251"><ele>662.19</ele><time></time></trkpt>
        <trkpt lat="28.7405523" lon="105.5793344"><ele>660.31</ele><time></time></trkpt>
        <trkpt lat="28.7405604" lon="105.5794451"><ele>658.01</ele><time></time></trkpt>
        <trkpt lat="28.7405093" lon="105.5795422"><ele>656.45</ele><time></time></trkpt>
        <trkpt lat="28.7404669" lon="105.5796441"><ele>656.79</ele><time></time></trkpt>
        <trkpt lat="28.7404774" lon="105.5797554"><ele>658.35</ele><time></time></trkpt>
        <trkpt lat="28.7405166" lon="105.5798616"><ele>658.54</ele><time></time></trkpt>
        <trkpt lat="28.7405969" lon="105.5799191"><ele>659.72</ele><time></time></trkpt>
        <trkpt lat="28.7406318" lon="105.579928"><ele>660.47</ele><time></time></trkpt>
        <trkpt lat="28.7407168" lon="105.5799297"><ele>661.23</ele><time></time></trkpt>
        <trkpt lat="28.7407762" lon="105.5800003"><ele>660.61</ele><time></time></trkpt>
        <trkpt lat="28.7408476" lon="105.5800858"><ele>660.49</ele><time></time></trkpt>
        <trkpt lat="28.7408917" lon="105.5801865"><ele>660.55</ele><time></time></trkpt>
        <trkpt lat="28.740965" lon="105.5802543"><ele>660.9</ele><time></time></trkpt>
        <trkpt lat="28.7410183" lon="105.5803029"><ele>659.48</ele><time></time></trkpt>
        <trkpt lat="28.7410956" lon="105.5803663"><ele>659.01</ele><time></time></trkpt>
        <trkpt lat="28.7411672" lon="105.5804465"><ele>656.95</ele><time></time></trkpt>
        <trkpt lat="28.7411526" lon="105.5805437"><ele>656.62</ele><time></time></trkpt>
        <trkpt lat="28.7411232" lon="105.5806514"><ele>658.47</ele><time></time></trkpt>
        <trkpt lat="28.7411092" lon="105.5807727"><ele>659.29</ele><time></time></trkpt>
        <trkpt lat="28.7411294" lon="105.5808127"><ele>658.71</ele><time></time></trkpt>
        <trkpt lat="28.741083" lon="105.5808897"><ele>658.34</ele><time></time></trkpt>
        <trkpt lat="28.7410064" lon="105.58097"><ele>658.94</ele><time></time></trkpt>
        <trkpt lat="28.7409628" lon="105.5810666"><ele>658.44</ele><time></time></trkpt>
        <trkpt lat="28.740933" lon="105.5811813"><ele>657.73</ele><time></time></trkpt>
        <trkpt lat="28.7408999" lon="105.581289"><ele>658.09</ele><time></time></trkpt>
        <trkpt lat="28.7408487" lon="105.5814014"><ele>657.65</ele><time></time></trkpt>
        <trkpt lat="28.7407738" lon="105.5814864"><ele>657.88</ele><time></time></trkpt>
        <trkpt lat="28.7406827" lon="105.5814763"><ele>658.03</ele><time></time></trkpt>
        <trkpt lat="28.74061" lon="105.5813773"><ele>657.93</ele><time></time></trkpt>
        <trkpt lat="28.7405279" lon="105.5813713"><ele>658.59</ele><time></time></trkpt>
        <trkpt lat="28.7405067" lon="105.5814623"><ele>659.59</ele><time></time></trkpt>
        <trkpt lat="28.7405034" lon="105.5815793"><ele>659.95</ele><time></time></trkpt>
        <trkpt lat="28.7404636" lon="105.5816876"><ele>660.65</ele><time></time></trkpt>
        <trkpt lat="28.7404388" lon="105.5817944"><ele>663.73</ele><time></time></trkpt>
        <trkpt lat="28.7404269" lon="105.5818998"><ele>666.34</ele><time></time></trkpt>
        <trkpt lat="28.740422" lon="105.5820142"><ele>669.51</ele><time></time></trkpt>
        <trkpt lat="28.7403754" lon="105.5821043"><ele>672.19</ele><time></time></trkpt>
        <trkpt lat="28.7403199" lon="105.5821963"><ele>673.95</ele><time></time></trkpt>
        <trkpt lat="28.7402591" lon="105.5822869"><ele>675.22</ele><time></time></trkpt>
        <trkpt lat="28.7402238" lon="105.5823846"><ele>675.19</ele><time></time></trkpt>
        <trkpt lat="28.7402123" lon="105.5824907"><ele>675.27</ele><time></time></trkpt>
        <trkpt lat="28.7402412" lon="105.5825951"><ele>674.5</ele><time></time></trkpt>
        <trkpt lat="28.7402558" lon="105.5827061"><ele>674.61</ele><time></time></trkpt>
        <trkpt lat="28.7402403" lon="105.5827264"><ele>674.71</ele><time></time></trkpt>
        <trkpt lat="28.7402509" lon="105.582798"><ele>675.12</ele><time></time></trkpt>
        <trkpt lat="28.7402325" lon="105.5829088"><ele>674.61</ele><time></time></trkpt>
        <trkpt lat="28.7402736" lon="105.5830041"><ele>674.01</ele><time></time></trkpt>
        <trkpt lat="28.7402912" lon="105.5830249"><ele>673.1</ele><time></time></trkpt>
        <trkpt lat="28.7403013" lon="105.5831062"><ele>673.26</ele><time></time></trkpt>
        <trkpt lat="28.7402472" lon="105.5832041"><ele>673.74</ele><time></time></trkpt>
        <trkpt lat="28.740219" lon="105.5833115"><ele>674.92</ele><time></time></trkpt>
        <trkpt lat="28.7402008" lon="105.5834198"><ele>675.5</ele><time></time></trkpt>
        <trkpt lat="28.7401917" lon="105.5835292"><ele>675.3</ele><time></time></trkpt>
        <trkpt lat="28.7402191" lon="105.5836347"><ele>675.33</ele><time></time></trkpt>
        <trkpt lat="28.7402482" lon="105.5837365"><ele>673.05</ele><time></time></trkpt>
        <trkpt lat="28.7402083" lon="105.5838131"><ele>668.96</ele><time></time></trkpt>
        <trkpt lat="28.7401284" lon="105.5838665"><ele>666.52</ele><time></time></trkpt>
        <trkpt lat="28.740123" lon="105.583962"><ele>664.09</ele><time></time></trkpt>
        <trkpt lat="28.7401672" lon="105.584077"><ele>660.33</ele><time></time></trkpt>
        <trkpt lat="28.7401973" lon="105.5841741"><ele>655.59</ele><time></time></trkpt>
        <trkpt lat="28.7402546" lon="105.5842619"><ele>651.5</ele><time></time></trkpt>
        <trkpt lat="28.7402878" lon="105.5843621"><ele>648.84</ele><time></time></trkpt>
        <trkpt lat="28.7403208" lon="105.5844685"><ele>647.06</ele><time></time></trkpt>
        <trkpt lat="28.7403381" lon="105.5845278"><ele>646.54</ele><time></time></trkpt>
        <trkpt lat="28.7403563" lon="105.5846155"><ele>645.85</ele><time></time></trkpt>
        <trkpt lat="28.7403399" lon="105.584725"><ele>644.39</ele><time></time></trkpt>
        <trkpt lat="28.7404094" lon="105.584763"><ele>641.73</ele><time></time></trkpt>
        <trkpt lat="28.7404899" lon="105.5848156"><ele>639.08</ele><time></time></trkpt>
        <trkpt lat="28.7405697" lon="105.5848938"><ele>638.3</ele><time></time></trkpt>
        <trkpt lat="28.7406317" lon="105.5849852"><ele>639.48</ele><time></time></trkpt>
        <trkpt lat="28.7406893" lon="105.5850839"><ele>640.97</ele><time></time></trkpt>
        <trkpt lat="28.7407016" lon="105.5851879"><ele>642.38</ele><time></time></trkpt>
        <trkpt lat="28.7407056" lon="105.5852998"><ele>645.15</ele><time></time></trkpt>
        <trkpt lat="28.7407053" lon="105.5854176"><ele>648.73</ele><time></time></trkpt>
        <trkpt lat="28.7407097" lon="105.585529"><ele>652.13</ele><time></time></trkpt>
        <trkpt lat="28.7407197" lon="105.5856465"><ele>654.61</ele><time></time></trkpt>
        <trkpt lat="28.740736" lon="105.5857529"><ele>657</ele><time></time></trkpt>
        <trkpt lat="28.7407272" lon="105.5858545"><ele>659.01</ele><time></time></trkpt>
        <trkpt lat="28.7407157" lon="105.5859623"><ele>660.55</ele><time></time></trkpt>
        <trkpt lat="28.7406982" lon="105.5860764"><ele>662.84</ele><time></time></trkpt>
        <trkpt lat="28.7406862" lon="105.5861937"><ele>664.32</ele><time></time></trkpt>
        <trkpt lat="28.7406364" lon="105.5862925"><ele>667.04</ele><time></time></trkpt>
        <trkpt lat="28.7405621" lon="105.5863623"><ele>668.38</ele><time></time></trkpt>
        <trkpt lat="28.7405139" lon="105.5864576"><ele>671.03</ele><time></time></trkpt>
        <trkpt lat="28.7404927" lon="105.5865656"><ele>673.28</ele><time></time></trkpt>
        <trkpt lat="28.7404803" lon="105.5866874"><ele>674.34</ele><time></time></trkpt>
        <trkpt lat="28.7404869" lon="105.5868022"><ele>674.85</ele><time></time></trkpt>
        <trkpt lat="28.7404553" lon="105.5869031"><ele>675.19</ele><time></time></trkpt>
        <trkpt lat="28.7404078" lon="105.5869984"><ele>673.02</ele><time></time></trkpt>
        <trkpt lat="28.7403331" lon="105.5870776"><ele>672.19</ele><time></time></trkpt>
        <trkpt lat="28.7402489" lon="105.5871446"><ele>673.8</ele><time></time></trkpt>
        <trkpt lat="28.7401689" lon="105.5872065"><ele>674.82</ele><time></time></trkpt>
        <trkpt lat="28.7400743" lon="105.5872434"><ele>674.59</ele><time></time></trkpt>
        <trkpt lat="28.7399834" lon="105.5872906"><ele>674.54</ele><time></time></trkpt>
        <trkpt lat="28.739887" lon="105.5873465"><ele>673.94</ele><time></time></trkpt>
        <trkpt lat="28.7398129" lon="105.5874323"><ele>673.05</ele><time></time></trkpt>
        <trkpt lat="28.7397379" lon="105.587512"><ele>671.82</ele><time></time></trkpt>
        <trkpt lat="28.7396598" lon="105.5875833"><ele>671.02</ele><time></time></trkpt>
        <trkpt lat="28.7395902" lon="105.5876633"><ele>671.59</ele><time></time></trkpt>
        <trkpt lat="28.7395118" lon="105.587731"><ele>673.1</ele><time></time></trkpt>
        <trkpt lat="28.7395022" lon="105.5878364"><ele>674.51</ele><time></time></trkpt>
        <trkpt lat="28.7394868" lon="105.5879466"><ele>673.53</ele><time></time></trkpt>
        <trkpt lat="28.7394411" lon="105.5880498"><ele>672.62</ele><time></time></trkpt>
        <trkpt lat="28.7393987" lon="105.5881486"><ele>672.23</ele><time></time></trkpt>
        <trkpt lat="28.7393524" lon="105.5882506"><ele>672.64</ele><time></time></trkpt>
        <trkpt lat="28.7393" lon="105.5883481"><ele>672.24</ele><time></time></trkpt>
        <trkpt lat="28.7392538" lon="105.5884513"><ele>671.7</ele><time></time></trkpt>
        <trkpt lat="28.7392311" lon="105.5885539"><ele>671.07</ele><time></time></trkpt>
        <trkpt lat="28.7391886" lon="105.5886603"><ele>663.47</ele><time></time></trkpt>
        <trkpt lat="28.7391338" lon="105.5887538"><ele>657.87</ele><time></time></trkpt>
        <trkpt lat="28.7390951" lon="105.5888702"><ele>653.34</ele><time></time></trkpt>
        <trkpt lat="28.7390355" lon="105.5889755"><ele>651.66</ele><time></time></trkpt>
        <trkpt lat="28.7389716" lon="105.5890685"><ele>651.82</ele><time></time></trkpt>
        <trkpt lat="28.7389139" lon="105.5891614"><ele>651.7</ele><time></time></trkpt>
        <trkpt lat="28.7388452" lon="105.5892434"><ele>651.54</ele><time></time></trkpt>
        <trkpt lat="28.7387779" lon="105.5893155"><ele>652.45</ele><time></time></trkpt>
        <trkpt lat="28.7387387" lon="105.5894152"><ele>652.9</ele><time></time></trkpt>
        <trkpt lat="28.7386901" lon="105.5895235"><ele>654.36</ele><time></time></trkpt>
        <trkpt lat="28.7386258" lon="105.5896223"><ele>655.19</ele><time></time></trkpt>
        <trkpt lat="28.7385554" lon="105.5897077"><ele>656</ele><time></time></trkpt>
        <trkpt lat="28.7384577" lon="105.5897631"><ele>656.66</ele><time></time></trkpt>
        <trkpt lat="28.7383665" lon="105.5898145"><ele>657.08</ele><time></time></trkpt>
        <trkpt lat="28.7382826" lon="105.5898622"><ele>657.24</ele><time></time></trkpt>
        <trkpt lat="28.7382226" lon="105.5899364"><ele>657.13</ele><time></time></trkpt>
        <trkpt lat="28.7381766" lon="105.5900239"><ele>657.2</ele><time></time></trkpt>
        <trkpt lat="28.738111" lon="105.5901022"><ele>657.36</ele><time></time></trkpt>
        <trkpt lat="28.7380481" lon="105.5901818"><ele>657.02</ele><time></time></trkpt>
        <trkpt lat="28.7379926" lon="105.5902732"><ele>655.12</ele><time></time></trkpt>
        <trkpt lat="28.7379533" lon="105.5903825"><ele>651.29</ele><time></time></trkpt>
        <trkpt lat="28.7379279" lon="105.5904946"><ele>646.45</ele><time></time></trkpt>
        <trkpt lat="28.7378491" lon="105.5905451"><ele>644.11</ele><time></time></trkpt>
        <trkpt lat="28.7377635" lon="105.5905165"><ele>641.91</ele><time></time></trkpt>
        <trkpt lat="28.7376786" lon="105.5904483"><ele>639.85</ele><time></time></trkpt>
        <trkpt lat="28.7376018" lon="105.5903722"><ele>639.35</ele><time></time></trkpt>
        <trkpt lat="28.7375364" lon="105.5902844"><ele>639.61</ele><time></time></trkpt>
        <trkpt lat="28.7374826" lon="105.5901795"><ele>639.07</ele><time></time></trkpt>
        <trkpt lat="28.7374219" lon="105.5900885"><ele>638.95</ele><time></time></trkpt>
        <trkpt lat="28.7373735" lon="105.5899953"><ele>639.2</ele><time></time></trkpt>
        <trkpt lat="28.7373327" lon="105.5898999"><ele>639.08</ele><time></time></trkpt>
        <trkpt lat="28.7373235" lon="105.589792"><ele>638.71</ele><time></time></trkpt>
        <trkpt lat="28.7374493" lon="105.5896886"><ele>640.23</ele><time></time></trkpt>
        <trkpt lat="28.7375038" lon="105.5896498"><ele>641.62</ele><time></time></trkpt>
        <trkpt lat="28.7374851" lon="105.5895695"><ele>642.8</ele><time></time></trkpt>
        <trkpt lat="28.7374248" lon="105.5894915"><ele>643.86</ele><time></time></trkpt>
        <trkpt lat="28.7373458" lon="105.5894184"><ele>645.41</ele><time></time></trkpt>
        <trkpt lat="28.7373107" lon="105.5893208"><ele>646.97</ele><time></time></trkpt>
        <trkpt lat="28.7372964" lon="105.589216"><ele>647.85</ele><time></time></trkpt>
        <trkpt lat="28.7373114" lon="105.5891205"><ele>648.53</ele><time></time></trkpt>
        <trkpt lat="28.7373062" lon="105.5891819"><ele>649.29</ele><time></time></trkpt>
        <trkpt lat="28.7373046" lon="105.589299"><ele>650.49</ele><time></time></trkpt>
        <trkpt lat="28.7372499" lon="105.5893941"><ele>651.47</ele><time></time></trkpt>
        <trkpt lat="28.7371876" lon="105.5893495"><ele>650.88</ele><time></time></trkpt>
        <trkpt lat="28.7371616" lon="105.5892478"><ele>649.82</ele><time></time></trkpt>
        <trkpt lat="28.7371106" lon="105.5891405"><ele>650.06</ele><time></time></trkpt>
        <trkpt lat="28.7370238" lon="105.5890976"><ele>649.94</ele><time></time></trkpt>
        <trkpt lat="28.7369559" lon="105.5891652"><ele>649.57</ele><time></time></trkpt>
        <trkpt lat="28.7369048" lon="105.5892693"><ele>649.3</ele><time></time></trkpt>
        <trkpt lat="28.736846" lon="105.5893751"><ele>649.31</ele><time></time></trkpt>
        <trkpt lat="28.7367621" lon="105.5894164"><ele>649.67</ele><time></time></trkpt>
        <trkpt lat="28.736722" lon="105.5894237"><ele>648.82</ele><time></time></trkpt>
        <trkpt lat="28.7366627" lon="105.589371"><ele>648.67</ele><time></time></trkpt>
        <trkpt lat="28.7365939" lon="105.589311"><ele>648.61</ele><time></time></trkpt>
        <trkpt lat="28.7365325" lon="105.5892174"><ele>648.7</ele><time></time></trkpt>
        <trkpt lat="28.7364827" lon="105.5891154"><ele>650.03</ele><time></time></trkpt>
        <trkpt lat="28.7364405" lon="105.5890066"><ele>650.43</ele><time></time></trkpt>
        <trkpt lat="28.736417" lon="105.5888924"><ele>649.81</ele><time></time></trkpt>
        <trkpt lat="28.7363513" lon="105.5888098"><ele>648.62</ele><time></time></trkpt>
        <trkpt lat="28.7362633" lon="105.5887438"><ele>647.34</ele><time></time></trkpt>
        <trkpt lat="28.7361673" lon="105.5887595"><ele>645.73</ele><time></time></trkpt>
        <trkpt lat="28.7360761" lon="105.5888001"><ele>645</ele><time></time></trkpt>
        <trkpt lat="28.7360211" lon="105.588921"><ele>644.91</ele><time></time></trkpt>
        <trkpt lat="28.7359222" lon="105.5889638"><ele>645.49</ele><time></time></trkpt>
        <trkpt lat="28.7358342" lon="105.5889352"><ele>644.85</ele><time></time></trkpt>
        <trkpt lat="28.7357423" lon="105.5888711"><ele>644.45</ele><time></time></trkpt>
        <trkpt lat="28.7357354" lon="105.5887634"><ele>644.71</ele><time></time></trkpt>
        <trkpt lat="28.7357598" lon="105.588653"><ele>644.85</ele><time></time></trkpt>
        <trkpt lat="28.7357035" lon="105.5885776"><ele>645.84</ele><time></time></trkpt>
        <trkpt lat="28.7356326" lon="105.5885113"><ele>646.88</ele><time></time></trkpt>
        <trkpt lat="28.7355939" lon="105.5884939"><ele>646.89</ele><time></time></trkpt>
        <trkpt lat="28.7355242" lon="105.5884489"><ele>646.84</ele><time></time></trkpt>
        <trkpt lat="28.7354405" lon="105.5883853"><ele>647.39</ele><time></time></trkpt>
        <trkpt lat="28.7354057" lon="105.5883542"><ele>648.19</ele><time></time></trkpt>
        <trkpt lat="28.7353949" lon="105.5882594"><ele>648.44</ele><time></time></trkpt>
        <trkpt lat="28.7353653" lon="105.5881451"><ele>648.67</ele><time></time></trkpt>
        <trkpt lat="28.7352926" lon="105.5880706"><ele>648.33</ele><time></time></trkpt>
        <trkpt lat="28.7351935" lon="105.5880464"><ele>648.04</ele><time></time></trkpt>
        <trkpt lat="28.735092" lon="105.5880289"><ele>648.7</ele><time></time></trkpt>
        <trkpt lat="28.7349835" lon="105.5880572"><ele>648.33</ele><time></time></trkpt>
        <trkpt lat="28.734888" lon="105.5880496"><ele>648.36</ele><time></time></trkpt>
        <trkpt lat="28.7348229" lon="105.5879862"><ele>647.76</ele><time></time></trkpt>
        <trkpt lat="28.7347573" lon="105.5878913"><ele>647.64</ele><time></time></trkpt>
        <trkpt lat="28.7346826" lon="105.5878159"><ele>648.42</ele><time></time></trkpt>
        <trkpt lat="28.7346405" lon="105.587781"><ele>649.26</ele><time></time></trkpt>
        <trkpt lat="28.7345649" lon="105.5878067"><ele>649.55</ele><time></time></trkpt>
        <trkpt lat="28.7345204" lon="105.5878492"><ele>648.73</ele><time></time></trkpt>
        <trkpt lat="28.7344866" lon="105.587938"><ele>648.08</ele><time></time></trkpt>
        <trkpt lat="28.734416" lon="105.5880081"><ele>646.55</ele><time></time></trkpt>
        <trkpt lat="28.7343457" lon="105.5879396"><ele>646.69</ele><time></time></trkpt>
        <trkpt lat="28.7342905" lon="105.5878588"><ele>648.29</ele><time></time></trkpt>
        <trkpt lat="28.7341974" lon="105.5878164"><ele>649.43</ele><time></time></trkpt>
        <trkpt lat="28.7341118" lon="105.587766"><ele>651.93</ele><time></time></trkpt>
        <trkpt lat="28.7340612" lon="105.587666"><ele>653.71</ele><time></time></trkpt>
        <trkpt lat="28.7340155" lon="105.5875686"><ele>651.57</ele><time></time></trkpt>
        <trkpt lat="28.7339594" lon="105.5874814"><ele>648.72</ele><time></time></trkpt>
        <trkpt lat="28.7338656" lon="105.5874387"><ele>647.8</ele><time></time></trkpt>
        <trkpt lat="28.7338285" lon="105.5874332"><ele>648.95</ele><time></time></trkpt>
        <trkpt lat="28.7337499" lon="105.5874614"><ele>650.2</ele><time></time></trkpt>
        <trkpt lat="28.733659" lon="105.5874422"><ele>650.48</ele><time></time></trkpt>
        <trkpt lat="28.7336067" lon="105.5873633"><ele>650.56</ele><time></time></trkpt>
        <trkpt lat="28.7335613" lon="105.5872494"><ele>650.67</ele><time></time></trkpt>
        <trkpt lat="28.7335137" lon="105.5871332"><ele>650.8</ele><time></time></trkpt>
        <trkpt lat="28.7334624" lon="105.5870355"><ele>650.72</ele><time></time></trkpt>
        <trkpt lat="28.7333887" lon="105.5869768"><ele>650.03</ele><time></time></trkpt>
        <trkpt lat="28.7333012" lon="105.5869444"><ele>648.56</ele><time></time></trkpt>
        <trkpt lat="28.7332747" lon="105.5868537"><ele>648.11</ele><time></time></trkpt>
        <trkpt lat="28.7333138" lon="105.5867537"><ele>647.24</ele><time></time></trkpt>
        <trkpt lat="28.7333738" lon="105.5866572"><ele>645.15</ele><time></time></trkpt>
        <trkpt lat="28.7334203" lon="105.5865591"><ele>643.87</ele><time></time></trkpt>
        <trkpt lat="28.733433" lon="105.5864555"><ele>642.81</ele><time></time></trkpt>
        <trkpt lat="28.7333589" lon="105.5864483"><ele>643.38</ele><time></time></trkpt>
        <trkpt lat="28.7332676" lon="105.5865028"><ele>644.29</ele><time></time></trkpt>
        <trkpt lat="28.7331621" lon="105.5865636"><ele>644.63</ele><time></time></trkpt>
        <trkpt lat="28.7330575" lon="105.5866116"><ele>644.3</ele><time></time></trkpt>
        <trkpt lat="28.7329592" lon="105.5865994"><ele>644.08</ele><time></time></trkpt>
        <trkpt lat="28.7328773" lon="105.5865229"><ele>643.8</ele><time></time></trkpt>
        <trkpt lat="28.7327871" lon="105.5864861"><ele>643.92</ele><time></time></trkpt>
        <trkpt lat="28.7327106" lon="105.586524"><ele>644.2</ele><time></time></trkpt>
        <trkpt lat="28.7326214" lon="105.5865133"><ele>643.92</ele><time></time></trkpt>
        <trkpt lat="28.7325518" lon="105.5864354"><ele>644.19</ele><time></time></trkpt>
        <trkpt lat="28.7324604" lon="105.5864126"><ele>644.51</ele><time></time></trkpt>
        <trkpt lat="28.7323743" lon="105.5863524"><ele>647.23</ele><time></time></trkpt>
        <trkpt lat="28.7323387" lon="105.5862534"><ele>647.1</ele><time></time></trkpt>
        <trkpt lat="28.7323578" lon="105.5861502"><ele>642.99</ele><time></time></trkpt>
        <trkpt lat="28.7323794" lon="105.5860365"><ele>638.43</ele><time></time></trkpt>
        <trkpt lat="28.7323477" lon="105.5859342"><ele>635.66</ele><time></time></trkpt>
        <trkpt lat="28.7322706" lon="105.5858797"><ele>633.75</ele><time></time></trkpt>
        <trkpt lat="28.7321797" lon="105.5858485"><ele>632.64</ele><time></time></trkpt>
        <trkpt lat="28.7320915" lon="105.5858029"><ele>631.54</ele><time></time></trkpt>
        <trkpt lat="28.7320659" lon="105.5857914"><ele>630.26</ele><time></time></trkpt>
        <trkpt lat="28.7319919" lon="105.5858397"><ele>629.56</ele><time></time></trkpt>
        <trkpt lat="28.7319822" lon="105.5858674"><ele>628.39</ele><time></time></trkpt>
        <trkpt lat="28.7319708" lon="105.5858006"><ele>626.72</ele><time></time></trkpt>
        <trkpt lat="28.7319025" lon="105.5857657"><ele>626.13</ele><time></time></trkpt>
        <trkpt lat="28.7318766" lon="105.5856705"><ele>623.57</ele><time></time></trkpt>
        <trkpt lat="28.7318097" lon="105.5856105"><ele>621.27</ele><time></time></trkpt>
        <trkpt lat="28.7317855" lon="105.5857138"><ele>617.66</ele><time></time></trkpt>
        <trkpt lat="28.7317966" lon="105.5856012"><ele>616.59</ele><time></time></trkpt>
        <trkpt lat="28.7317764" lon="105.5855538"><ele>613.72</ele><time></time></trkpt>
        <trkpt lat="28.7318437" lon="105.5855736"><ele>612.73</ele><time></time></trkpt>
        <trkpt lat="28.7319304" lon="105.5855487"><ele>612.52</ele><time></time></trkpt>
        <trkpt lat="28.7320276" lon="105.5855086"><ele>611.47</ele><time></time></trkpt>
        <trkpt lat="28.7321267" lon="105.5855084"><ele>612.25</ele><time></time></trkpt>
        <trkpt lat="28.7320754" lon="105.585502"><ele>615.33</ele><time></time></trkpt>
        <trkpt lat="28.7319803" lon="105.585487"><ele>618.26</ele><time></time></trkpt>
        <trkpt lat="28.731928" lon="105.5854073"><ele>621.45</ele><time></time></trkpt>
        <trkpt lat="28.7318681" lon="105.5853204"><ele>619.09</ele><time></time></trkpt>
        <trkpt lat="28.7317817" lon="105.5852464"><ele>621.99</ele><time></time></trkpt>
      </trkseg>
  </trk>
</gpx>